Time,TemperatureF,DewpointF,PressureIn,WindDirection,WindDirectionDegrees,WindSpeedMPH,WindSpeedGustMPH,Humidity,HourlyPrecipIn,Conditions,Clouds,dailyrainin,SoftwareType,DateUTC
2013-07-08 00:01:00,73.8,69.0,29.23,SSW,195,2.0,6.0,85,0.00,,,0.00,WUHU216DAVISVP2,2013-07-08 04:01:00,
2013-07-08 00:06:00,73.8,69.0,29.23,SSW,207,0.0,6.0,85,0.00,,,0.00,WUHU216DAVISVP2,2013-07-08 04:06:00,
2013-07-08 00:11:00,73.8,69.0,29.23,SW,218,1.0,6.0,85,0.00,,,0.00,WUHU216DAVISVP2,2013-07-08 04:11:00,
2013-07-08 00:12:00,73.8,69.0,29.23,SW,226,2.0,7.0,85,0.00,,,0.00,WUHU216DAVISVP2,2013-07-08 04:12:00,
2013-07-08 00:16:00,73.8,69.4,29.23,SW,216,3.0,7.0,86,0.00,,,0.00,WUHU216DAVISVP2,2013-07-08 04:16:00,
2013-07-08 00:17:00,73.8,69.4,29.23,SW,216,0.0,7.0,86,0.00,,,0.00,WUHU216DAVISVP2,2013-07-08 04:17:00,
2013-07-08 00:21:00,73.8,69.4,29.23,SW,222,2.0,7.0,86,0.00,,,0.00,WUHU216DAVISVP2,2013-07-08 04:21:00,
2013-07-08 00:22:00,73.8,69.4,29.23,SW,223,3.0,7.0,86,0.00,,,0.00,WUHU216DAVISVP2,2013-07-08 04:22:00,
2013-07-08 00:26:00,73.8,69.4,29.23,WSW,253,3.0,9.0,86,0.00,,,0.00,WUHU216DAVISVP2,2013-07-08 04:26:00,
2013-07-08 00:27:00,73.8,69.4,29.23,WSW,245,3.0,9.0,86,0.00,,,0.00,WUHU216DAVISVP2,2013-07-08 04:27:00,
2013-07-08 00:31:00,73.9,69.5,29.23,WSW,251,4.0,11.0,86,0.00,,,0.00,WUHU216DAVISVP2,2013-07-08 04:31:00,
2013-07-08 00:32:00,73.9,69.5,29.23,WSW,251,4.0,11.0,86,0.00,,,0.00,WUHU216DAVISVP2,2013-07-08 04:32:00,
2013-07-08 00:33:00,73.9,69.5,29.23,WSW,240,1.0,11.0,86,0.00,,,0.00,WUHU216DAVISVP2,2013-07-08 04:33:00,
2013-07-08 00:37:00,74.0,69.6,29.22,SW,233,7.0,11.0,86,0.00,,,0.00,WUHU216DAVISVP2,2013-07-08 04:37:00,
2013-07-08 00:38:00,74.0,69.6,29.22,SW,224,0.0,11.0,86,0.00,,,0.00,WUHU216DAVISVP2,2013-07-08 04:38:00,
2013-07-08 00:42:00,74.1,69.3,29.23,SW,222,2.0,11.0,85,0.00,,,0.00,WUHU216DAVISVP2,2013-07-08 04:42:00,
2013-07-08 00:43:00,74.1,69.3,29.23,SSW,204,0.0,11.0,85,0.00,,,0.00,WUHU216DAVISVP2,2013-07-08 04:43:00,
2013-07-08 00:47:00,74.1,69.3,29.23,SSW,200,3.0,11.0,85,0.00,,,0.00,WUHU216DAVISVP2,2013-07-08 04:47:00,
2013-07-08 00:48:00,74.1,69.3,29.23,SSW,210,1.0,11.0,85,0.00,,,0.00,WUHU216DAVISVP2,2013-07-08 04:48:00,
2013-07-08 00:49:00,74.1,69.3,29.22,WSW,251,2.0,11.0,85,0.00,,,0.00,WUHU216DAVISVP2,2013-07-08 04:49:00,
2013-07-08 00:53:00,74.1,69.3,29.23,WSW,246,5.0,11.0,85,0.00,,,0.00,WUHU216DAVISVP2,2013-07-08 04:53:00,
2013-07-08 00:54:00,74.1,69.3,29.23,SW,219,0.0,11.0,85,0.00,,,0.00,WUHU216DAVISVP2,2013-07-08 04:54:00,
2013-07-08 00:58:00,74.1,69.3,29.22,WSW,237,5.0,10.0,85,0.00,,,0.00,WUHU216DAVISVP2,2013-07-08 04:58:00,
2013-07-08 01:00:00,74.2,69.4,29.23,SW,236,2.0,9.0,85,0.00,,,0.00,WUHU216DAVISVP2,2013-07-08 05:00:00,
2013-07-08 01:03:00,74.2,69.4,29.23,WSW,237,4.0,11.0,85,0.00,,,0.00,WUHU216DAVISVP2,2013-07-08 05:03:00,
2013-07-08 01:04:00,74.2,69.4,29.23,WSW,237,0.0,11.0,85,0.00,,,0.00,WUHU216DAVISVP2,2013-07-08 05:04:00,
2013-07-08 01:05:00,74.2,69.4,29.22,SW,214,4.0,11.0,85,0.00,,,0.00,WUHU216DAVISVP2,2013-07-08 05:05:00,
2013-07-08 01:08:00,74.2,69.4,29.22,SW,214,1.0,11.0,85,0.00,,,0.00,WUHU216DAVISVP2,2013-07-08 05:08:00,
2013-07-08 01:09:00,74.2,69.4,29.22,SW,216,3.0,11.0,85,0.00,,,0.00,WUHU216DAVISVP2,2013-07-08 05:09:00,
2013-07-08 01:11:00,74.2,69.4,29.23,SW,222,1.0,11.0,85,0.00,,,0.00,WUHU216DAVISVP2,2013-07-08 05:11:00,
2013-07-08 01:13:00,74.2,69.4,29.23,SW,225,2.0,11.0,85,0.00,,,0.00,WUHU216DAVISVP2,2013-07-08 05:13:00,
2013-07-08 01:14:00,74.2,69.4,29.23,SSW,208,1.0,11.0,85,0.00,,,0.00,WUHU216DAVISVP2,2013-07-08 05:14:00,
2013-07-08 01:16:00,74.1,69.3,29.23,SW,220,1.0,11.0,85,0.00,,,0.00,WUHU216DAVISVP2,2013-07-08 05:16:00,
2013-07-08 01:18:00,74.1,69.3,29.23,SSW,208,0.0,11.0,85,0.00,,,0.00,WUHU216DAVISVP2,2013-07-08 05:18:00,
2013-07-08 01:19:00,74.0,69.2,29.23,SW,219,1.0,11.0,85,0.00,,,0.00,WUHU216DAVISVP2,2013-07-08 05:19:00,
2013-07-08 01:21:00,74.0,69.2,29.22,South,174,4.0,11.0,85,0.00,,,0.00,WUHU216DAVISVP2,2013-07-08 05:21:00,
2013-07-08 01:23:00,74.0,69.2,29.22,SW,226,4.0,8.0,85,0.00,,,0.00,WUHU216DAVISVP2,2013-07-08 05:23:00,
2013-07-08 01:24:00,74.0,69.2,29.22,South,176,4.0,8.0,85,0.00,,,0.00,WUHU216DAVISVP2,2013-07-08 05:24:00,
2013-07-08 01:26:00,73.9,69.1,29.22,SSW,204,0.0,8.0,85,0.00,,,0.00,WUHU216DAVISVP2,2013-07-08 05:26:00,
2013-07-08 01:29:00,73.8,69.0,29.22,SW,218,0.0,7.0,85,0.00,,,0.00,WUHU216DAVISVP2,2013-07-08 05:29:00,
2013-07-08 01:30:00,73.8,69.0,29.23,SW,218,1.0,7.0,85,0.00,,,0.00,WUHU216DAVISVP2,2013-07-08 05:30:00,
2013-07-08 01:31:00,73.7,69.3,29.23,SW,218,1.0,7.0,86,0.00,,,0.00,WUHU216DAVISVP2,2013-07-08 05:31:00,
2013-07-08 01:34:00,73.6,69.2,29.23,SW,233,1.0,7.0,86,0.00,,,0.00,WUHU216DAVISVP2,2013-07-08 05:34:00,
2013-07-08 01:35:00,73.6,69.2,29.23,SW,216,0.0,7.0,86,0.00,,,0.00,WUHU216DAVISVP2,2013-07-08 05:35:00,
2013-07-08 01:37:00,73.5,69.1,29.23,SSW,211,1.0,7.0,86,0.00,,,0.00,WUHU216DAVISVP2,2013-07-08 05:37:00,
2013-07-08 01:39:00,73.5,69.1,29.23,SSW,193,1.0,7.0,86,0.00,,,0.00,WUHU216DAVISVP2,2013-07-08 05:39:00,
2013-07-08 01:40:00,73.5,69.1,29.23,SSW,193,1.0,7.0,86,0.00,,,0.00,WUHU216DAVISVP2,2013-07-08 05:40:00,
2013-07-08 01:42:00,73.4,69.0,29.23,South,188,0.0,7.0,86,0.00,,,0.00,WUHU216DAVISVP2,2013-07-08 05:42:00,
2013-07-08 01:44:00,73.3,68.9,29.23,South,189,1.0,6.0,86,0.00,,,0.00,WUHU216DAVISVP2,2013-07-08 05:44:00,
2013-07-08 01:45:00,73.3,68.9,29.23,South,189,1.0,6.0,86,0.00,,,0.00,WUHU216DAVISVP2,2013-07-08 05:45:00,
2013-07-08 01:47:00,73.3,69.2,29.23,South,189,3.0,6.0,87,0.00,,,0.00,WUHU216DAVISVP2,2013-07-08 05:47:00,
2013-07-08 01:49:00,73.3,69.2,29.23,SSW,209,0.0,6.0,87,0.00,,,0.00,WUHU216DAVISVP2,2013-07-08 05:49:00,
2013-07-08 01:50:00,73.2,69.1,29.23,SSW,209,1.0,6.0,87,0.00,,,0.00,WUHU216DAVISVP2,2013-07-08 05:50:00,
2013-07-08 01:52:00,73.2,69.1,29.23,SSW,197,0.0,6.0,87,0.00,,,0.00,WUHU216DAVISVP2,2013-07-08 05:52:00,
2013-07-08 01:55:00,73.2,69.1,29.23,SSW,197,0.0,6.0,87,0.00,,,0.00,WUHU216DAVISVP2,2013-07-08 05:55:00,
2013-07-08 01:56:00,73.2,69.1,29.23,South,177,4.0,6.0,87,0.00,,,0.00,WUHU216DAVISVP2,2013-07-08 05:56:00,
2013-07-08 01:57:00,73.2,69.1,29.23,SSW,208,1.0,6.0,87,0.00,,,0.00,WUHU216DAVISVP2,2013-07-08 05:57:00,
2013-07-08 02:00:00,73.2,69.1,29.23,SW,215,1.0,6.0,87,0.00,,,0.00,WUHU216DAVISVP2,2013-07-08 06:00:00,
2013-07-08 02:01:00,73.1,69.0,29.23,SW,218,1.0,6.0,87,0.00,,,0.00,WUHU216DAVISVP2,2013-07-08 06:01:00,
2013-07-08 02:02:00,73.1,69.0,29.23,SW,218,0.0,5.0,87,0.00,,,0.00,WUHU216DAVISVP2,2013-07-08 06:02:00,
2013-07-08 02:05:00,73.1,69.0,29.23,SW,220,1.0,5.0,87,0.00,,,0.00,WUHU216DAVISVP2,2013-07-08 06:05:00,
2013-07-08 02:07:00,73.1,69.0,29.22,WSW,250,0.0,9.0,87,0.00,,,0.00,WUHU216DAVISVP2,2013-07-08 06:07:00,
2013-07-08 02:10:00,73.1,69.0,29.23,SW,233,0.0,9.0,87,0.00,,,0.00,WUHU216DAVISVP2,2013-07-08 06:10:00,
2013-07-08 02:11:00,73.1,69.0,29.23,SW,233,2.0,9.0,87,0.00,,,0.00,WUHU216DAVISVP2,2013-07-08 06:11:00,
2013-07-08 02:12:00,73.1,69.0,29.23,WSW,242,7.0,9.0,87,0.00,,,0.00,WUHU216DAVISVP2,2013-07-08 06:12:00,
2013-07-08 02:13:00,73.1,69.0,29.23,SW,235,0.0,9.0,87,0.00,,,0.00,WUHU216DAVISVP2,2013-07-08 06:13:00,
2013-07-08 02:15:00,73.2,69.1,29.23,SW,224,2.0,9.0,87,0.00,,,0.00,WUHU216DAVISVP2,2013-07-08 06:15:00,
2013-07-08 02:16:00,73.2,69.1,29.23,SW,223,2.0,9.0,87,0.00,,,0.00,WUHU216DAVISVP2,2013-07-08 06:16:00,
2013-07-08 02:17:00,73.2,69.1,29.23,SSW,209,3.0,9.0,87,0.00,,,0.00,WUHU216DAVISVP2,2013-07-08 06:17:00,
2013-07-08 02:18:00,73.2,69.1,29.23,South,190,2.0,9.0,87,0.00,,,0.00,WUHU216DAVISVP2,2013-07-08 06:18:00,
2013-07-08 02:20:00,73.3,68.9,29.23,WSW,239,2.0,9.0,86,0.00,,,0.00,WUHU216DAVISVP2,2013-07-08 06:20:00,
2013-07-08 02:21:00,73.3,68.9,29.23,WSW,239,1.0,9.0,86,0.00,,,0.00,WUHU216DAVISVP2,2013-07-08 06:21:00,
2013-07-08 02:22:00,73.3,68.9,29.23,SW,228,4.0,9.0,86,0.00,,,0.00,WUHU216DAVISVP2,2013-07-08 06:22:00,
2013-07-08 02:23:00,73.3,68.9,29.22,SW,217,1.0,9.0,86,0.00,,,0.00,WUHU216DAVISVP2,2013-07-08 06:23:00,
2013-07-08 02:26:00,73.2,68.8,29.23,SSW,209,3.0,9.0,86,0.00,,,0.00,WUHU216DAVISVP2,2013-07-08 06:26:00,
2013-07-08 02:27:00,73.2,68.8,29.23,South,188,3.0,9.0,86,0.00,,,0.00,WUHU216DAVISVP2,2013-07-08 06:27:00,
2013-07-08 02:28:00,73.2,68.8,29.23,SW,216,1.0,9.0,86,0.00,,,0.00,WUHU216DAVISVP2,2013-07-08 06:28:00,
2013-07-08 02:31:00,73.1,68.7,29.23,WSW,241,0.0,9.0,86,0.00,,,0.00,WUHU216DAVISVP2,2013-07-08 06:31:00,
2013-07-08 02:32:00,73.1,68.7,29.23,SW,233,7.0,9.0,86,0.00,,,0.00,WUHU216DAVISVP2,2013-07-08 06:32:00,
2013-07-08 02:33:00,73.1,68.7,29.23,SW,222,1.0,9.0,86,0.00,,,0.00,WUHU216DAVISVP2,2013-07-08 06:33:00,
2013-07-08 02:36:00,73.1,68.7,29.23,SW,223,0.0,9.0,86,0.00,,,0.00,WUHU216DAVISVP2,2013-07-08 06:36:00,
2013-07-08 02:37:00,73.1,68.7,29.23,SW,223,1.0,9.0,86,0.00,,,0.00,WUHU216DAVISVP2,2013-07-08 06:37:00,
2013-07-08 02:38:00,73.1,68.7,29.23,South,184,4.0,9.0,86,0.00,,,0.00,WUHU216DAVISVP2,2013-07-08 06:38:00,
2013-07-08 02:41:00,73.0,68.6,29.23,SSW,199,0.0,9.0,86,0.00,,,0.00,WUHU216DAVISVP2,2013-07-08 06:41:00,
2013-07-08 02:42:00,73.0,68.9,29.23,SSW,209,2.0,9.0,87,0.00,,,0.00,WUHU216DAVISVP2,2013-07-08 06:42:00,
2013-07-08 02:43:00,73.0,68.9,29.23,SSW,195,5.0,9.0,87,0.00,,,0.00,WUHU216DAVISVP2,2013-07-08 06:43:00,
2013-07-08 02:44:00,73.0,68.9,29.23,WSW,241,7.0,9.0,87,0.00,,,0.00,WUHU216DAVISVP2,2013-07-08 06:44:00,
2013-07-08 02:46:00,72.9,68.8,29.23,WSW,251,3.0,8.0,87,0.00,,,0.00,WUHU216DAVISVP2,2013-07-08 06:46:00,
2013-07-08 02:47:00,72.9,68.8,29.23,SSW,211,2.0,8.0,87,0.00,,,0.00,WUHU216DAVISVP2,2013-07-08 06:47:00,
2013-07-08 02:48:00,72.9,68.8,29.23,SW,216,1.0,8.0,87,0.00,,,0.00,WUHU216DAVISVP2,2013-07-08 06:48:00,
2013-07-08 02:49:00,72.9,68.8,29.23,SSW,211,5.0,8.0,87,0.00,,,0.00,WUHU216DAVISVP2,2013-07-08 06:49:00,
2013-07-08 02:51:00,72.8,68.7,29.23,SSW,197,1.0,8.0,87,0.00,,,0.00,WUHU216DAVISVP2,2013-07-08 06:51:00,
2013-07-08 02:52:00,72.8,68.7,29.22,WSW,249,6.0,8.0,87,0.00,,,0.00,WUHU216DAVISVP2,2013-07-08 06:52:00,
2013-07-08 02:53:00,72.8,68.7,29.23,WSW,246,0.0,8.0,87,0.00,,,0.00,WUHU216DAVISVP2,2013-07-08 06:53:00,
2013-07-08 02:54:00,72.8,68.7,29.23,WSW,237,5.0,8.0,87,0.00,,,0.00,WUHU216DAVISVP2,2013-07-08 06:54:00,
2013-07-08 02:56:00,72.8,68.7,29.23,SSW,192,1.0,8.0,87,0.00,,,0.00,WUHU216DAVISVP2,2013-07-08 06:56:00,
2013-07-08 02:57:00,72.8,68.7,29.23,SSW,192,0.0,8.0,87,0.00,,,0.00,WUHU216DAVISVP2,2013-07-08 06:57:00,
2013-07-08 02:59:00,72.8,68.7,29.23,SSW,199,0.0,8.0,87,0.00,,,0.00,WUHU216DAVISVP2,2013-07-08 06:59:00,
2013-07-08 03:01:00,72.7,68.6,29.23,SW,220,1.0,8.0,87,0.00,,,0.00,WUHU216DAVISVP2,2013-07-08 07:01:00,
2013-07-08 03:02:00,72.7,68.6,29.23,SSW,203,2.0,8.0,87,0.00,,,0.00,WUHU216DAVISVP2,2013-07-08 07:02:00,
2013-07-08 03:04:00,72.7,68.6,29.23,SSW,194,0.0,8.0,87,0.00,,,0.00,WUHU216DAVISVP2,2013-07-08 07:04:00,
2013-07-08 03:06:00,72.6,68.5,29.23,South,184,0.0,7.0,87,0.00,,,0.00,WUHU216DAVISVP2,2013-07-08 07:06:00,
2013-07-08 03:07:00,72.6,68.5,29.23,SSW,211,1.0,7.0,87,0.00,,,0.00,WUHU216DAVISVP2,2013-07-08 07:07:00,
2013-07-08 03:08:00,72.6,68.5,29.23,SW,218,1.0,7.0,87,0.00,,,0.00,WUHU216DAVISVP2,2013-07-08 07:08:00,
2013-07-08 03:09:00,72.6,68.5,29.23,SSW,209,1.0,7.0,87,0.00,,,0.00,WUHU216DAVISVP2,2013-07-08 07:09:00,
2013-07-08 03:11:00,72.6,68.5,29.23,SW,215,1.0,8.0,87,0.00,,,0.00,WUHU216DAVISVP2,2013-07-08 07:11:00,
2013-07-08 03:13:00,72.5,68.4,29.23,SW,214,2.0,8.0,87,0.00,,,0.00,WUHU216DAVISVP2,2013-07-08 07:13:00,
2013-07-08 03:14:00,72.5,68.4,29.23,WSW,241,0.0,8.0,87,0.00,,,0.00,WUHU216DAVISVP2,2013-07-08 07:14:00,
2013-07-08 03:16:00,72.5,68.4,29.23,SW,227,0.0,8.0,87,0.00,,,0.00,WUHU216DAVISVP2,2013-07-08 07:16:00,
2013-07-08 03:18:00,72.4,68.3,29.23,SW,223,5.0,8.0,87,0.00,,,0.00,WUHU216DAVISVP2,2013-07-08 07:18:00,
2013-07-08 03:19:00,72.4,68.3,29.23,SSW,212,2.0,8.0,87,0.00,,,0.00,WUHU216DAVISVP2,2013-07-08 07:19:00,
2013-07-08 03:21:00,72.4,68.3,29.23,WSW,242,0.0,8.0,87,0.00,,,0.00,WUHU216DAVISVP2,2013-07-08 07:21:00,
2013-07-08 03:23:00,72.4,68.3,29.23,West,266,0.0,8.0,87,0.00,,,0.00,WUHU216DAVISVP2,2013-07-08 07:23:00,
2013-07-08 03:24:00,72.4,68.3,29.23,West,266,4.0,8.0,87,0.00,,,0.00,WUHU216DAVISVP2,2013-07-08 07:24:00,
2013-07-08 03:27:00,72.3,68.2,29.23,SW,218,0.0,8.0,87,0.00,,,0.00,WUHU216DAVISVP2,2013-07-08 07:27:00,
2013-07-08 03:28:00,72.3,68.2,29.23,WSW,253,1.0,6.0,87,0.00,,,0.00,WUHU216DAVISVP2,2013-07-08 07:28:00,
2013-07-08 03:29:00,72.3,68.2,29.23,South,181,0.0,6.0,87,0.00,,,0.00,WUHU216DAVISVP2,2013-07-08 07:29:00,
2013-07-08 03:30:00,72.3,68.2,29.23,SSW,212,0.0,6.0,87,0.00,,,0.00,WUHU216DAVISVP2,2013-07-08 07:30:00,
2013-07-08 03:32:00,72.2,68.4,29.23,WSW,249,1.0,6.0,88,0.00,,,0.00,WUHU216DAVISVP2,2013-07-08 07:32:00,
2013-07-08 03:33:00,72.2,68.4,29.23,South,189,2.0,6.0,88,0.00,,,0.00,WUHU216DAVISVP2,2013-07-08 07:33:00,
2013-07-08 03:34:00,72.2,68.4,29.23,South,189,1.0,6.0,88,0.00,,,0.00,WUHU216DAVISVP2,2013-07-08 07:34:00,
2013-07-08 03:35:00,72.2,68.4,29.23,SW,214,3.0,6.0,88,0.00,,,0.00,WUHU216DAVISVP2,2013-07-08 07:35:00,
2013-07-08 03:37:00,72.2,68.4,29.23,SW,233,2.0,9.0,88,0.00,,,0.00,WUHU216DAVISVP2,2013-07-08 07:37:00,
2013-07-08 03:38:00,72.2,68.4,29.23,WSW,243,0.0,9.0,88,0.00,,,0.00,WUHU216DAVISVP2,2013-07-08 07:38:00,
2013-07-08 03:39:00,72.2,68.4,29.23,West,262,5.0,9.0,88,0.00,,,0.00,WUHU216DAVISVP2,2013-07-08 07:39:00,
2013-07-08 03:40:00,72.2,68.4,29.23,SSW,197,4.0,10.0,88,0.00,,,0.00,WUHU216DAVISVP2,2013-07-08 07:40:00,
2013-07-08 03:43:00,72.2,68.1,29.22,West,269,6.0,10.0,87,0.00,,,0.00,WUHU216DAVISVP2,2013-07-08 07:43:00,
2013-07-08 03:44:00,72.2,68.1,29.22,WSW,249,6.0,10.0,87,0.00,,,0.00,WUHU216DAVISVP2,2013-07-08 07:44:00,
2013-07-08 03:46:00,72.2,68.1,29.23,WSW,237,4.0,10.0,87,0.00,,,0.00,WUHU216DAVISVP2,2013-07-08 07:46:00,
2013-07-08 03:48:00,72.2,68.1,29.23,West,260,6.0,10.0,87,0.00,,,0.00,WUHU216DAVISVP2,2013-07-08 07:48:00,
2013-07-08 03:50:00,72.2,68.1,29.23,WSW,247,9.0,10.0,87,0.00,,,0.00,WUHU216DAVISVP2,2013-07-08 07:50:00,
2013-07-08 03:51:00,72.3,68.2,29.22,WSW,248,6.0,10.0,87,0.00,,,0.00,WUHU216DAVISVP2,2013-07-08 07:51:00,
2013-07-08 03:53:00,72.3,68.2,29.22,WSW,251,6.0,10.0,87,0.00,,,0.00,WUHU216DAVISVP2,2013-07-08 07:53:00,
2013-07-08 03:55:00,72.3,68.2,29.23,WSW,238,3.0,10.0,87,0.00,,,0.00,WUHU216DAVISVP2,2013-07-08 07:55:00,
2013-07-08 03:56:00,72.3,68.2,29.23,WSW,238,6.0,10.0,87,0.00,,,0.00,WUHU216DAVISVP2,2013-07-08 07:56:00,
2013-07-08 03:58:00,72.3,68.2,29.23,SSW,210,4.0,10.0,87,0.00,,,0.00,WUHU216DAVISVP2,2013-07-08 07:58:00,
2013-07-08 04:00:00,72.3,68.2,29.23,WSW,245,6.0,10.0,87,0.00,,,0.00,WUHU216DAVISVP2,2013-07-08 08:00:00,
2013-07-08 04:01:00,72.3,68.2,29.23,WSW,241,7.0,10.0,87,0.00,,,0.00,WUHU216DAVISVP2,2013-07-08 08:01:00,
2013-07-08 04:02:00,72.3,68.2,29.23,WSW,241,3.0,10.0,87,0.00,,,0.00,WUHU216DAVISVP2,2013-07-08 08:02:00,
2013-07-08 04:03:00,72.3,68.2,29.22,WSW,241,2.0,10.0,87,0.00,,,0.00,WUHU216DAVISVP2,2013-07-08 08:03:00,
2013-07-08 04:05:00,72.2,68.1,29.22,WSW,256,5.0,10.0,87,0.00,,,0.00,WUHU216DAVISVP2,2013-07-08 08:05:00,
2013-07-08 04:06:00,72.2,68.1,29.22,WSW,256,1.0,10.0,87,0.00,,,0.00,WUHU216DAVISVP2,2013-07-08 08:06:00,
2013-07-08 04:07:00,72.2,68.1,29.22,SW,215,5.0,10.0,87,0.00,,,0.00,WUHU216DAVISVP2,2013-07-08 08:07:00,
2013-07-08 04:09:00,72.2,68.1,29.22,WSW,250,2.0,10.0,87,0.00,,,0.00,WUHU216DAVISVP2,2013-07-08 08:09:00,
2013-07-08 04:10:00,72.2,68.1,29.22,WSW,243,1.0,9.0,87,0.00,,,0.00,WUHU216DAVISVP2,2013-07-08 08:10:00,
2013-07-08 04:11:00,72.2,68.1,29.22,WSW,242,2.0,9.0,87,0.00,,,0.00,WUHU216DAVISVP2,2013-07-08 08:11:00,
2013-07-08 04:12:00,72.1,68.0,29.22,SW,229,3.0,9.0,87,0.00,,,0.00,WUHU216DAVISVP2,2013-07-08 08:12:00,
2013-07-08 04:13:00,72.1,68.0,29.23,SW,229,1.0,9.0,87,0.00,,,0.00,WUHU216DAVISVP2,2013-07-08 08:13:00,
2013-07-08 04:14:00,72.1,68.0,29.23,SW,229,0.0,9.0,87,0.00,,,0.00,WUHU216DAVISVP2,2013-07-08 08:14:00,
2013-07-08 04:15:00,72.1,68.0,29.23,SW,224,4.0,9.0,87,0.00,,,0.00,WUHU216DAVISVP2,2013-07-08 08:15:00,
2013-07-08 04:16:00,72.0,67.9,29.23,South,184,2.0,9.0,87,0.00,,,0.00,WUHU216DAVISVP2,2013-07-08 08:16:00,
2013-07-08 04:17:00,72.0,67.9,29.23,SW,222,6.0,9.0,87,0.00,,,0.00,WUHU216DAVISVP2,2013-07-08 08:17:00,
2013-07-08 04:18:00,72.0,67.9,29.23,SSW,199,0.0,9.0,87,0.00,,,0.00,WUHU216DAVISVP2,2013-07-08 08:18:00,
2013-07-08 04:19:00,71.9,67.8,29.23,South,185,2.0,9.0,87,0.00,,,0.00,WUHU216DAVISVP2,2013-07-08 08:19:00,
2013-07-08 04:20:00,71.9,68.2,29.23,South,186,1.0,9.0,88,0.00,,,0.00,WUHU216DAVISVP2,2013-07-08 08:20:00,
2013-07-08 04:21:00,71.9,68.2,29.23,South,186,1.0,9.0,88,0.00,,,0.00,WUHU216DAVISVP2,2013-07-08 08:21:00,
2013-07-08 04:22:00,71.8,68.1,29.23,SSW,194,0.0,9.0,88,0.00,,,0.00,WUHU216DAVISVP2,2013-07-08 08:22:00,
2013-07-08 04:23:00,71.8,68.1,29.23,SSW,199,1.0,9.0,88,0.00,,,0.00,WUHU216DAVISVP2,2013-07-08 08:23:00,
2013-07-08 04:24:00,71.8,68.1,29.23,SSW,212,2.0,7.0,88,0.00,,,0.00,WUHU216DAVISVP2,2013-07-08 08:24:00,
2013-07-08 04:25:00,71.7,68.0,29.23,SSW,198,1.0,7.0,88,0.00,,,0.00,WUHU216DAVISVP2,2013-07-08 08:25:00,
2013-07-08 04:26:00,71.6,67.9,29.23,South,184,0.0,6.0,88,0.00,,,0.00,WUHU216DAVISVP2,2013-07-08 08:26:00,
2013-07-08 04:27:00,71.6,67.9,29.23,South,184,1.0,6.0,88,0.00,,,0.00,WUHU216DAVISVP2,2013-07-08 08:27:00,
2013-07-08 04:28:00,71.5,67.8,29.23,South,185,1.0,6.0,88,0.00,,,0.00,WUHU216DAVISVP2,2013-07-08 08:28:00,
2013-07-08 04:29:00,71.5,67.8,29.23,South,185,1.0,6.0,88,0.00,,,0.00,WUHU216DAVISVP2,2013-07-08 08:29:00,
2013-07-08 04:30:00,71.4,67.7,29.23,South,187,1.0,6.0,88,0.00,,,0.00,WUHU216DAVISVP2,2013-07-08 08:30:00,
2013-07-08 04:31:00,71.3,67.6,29.23,South,187,1.0,6.0,88,0.00,,,0.00,WUHU216DAVISVP2,2013-07-08 08:31:00,
2013-07-08 04:32:00,71.3,67.9,29.23,South,187,1.0,6.0,89,0.00,,,0.00,WUHU216DAVISVP2,2013-07-08 08:32:00,
2013-07-08 04:33:00,71.3,67.9,29.23,South,187,0.0,6.0,89,0.00,,,0.00,WUHU216DAVISVP2,2013-07-08 08:33:00,
2013-07-08 04:34:00,71.2,67.8,29.23,South,188,0.0,6.0,89,0.00,,,0.00,WUHU216DAVISVP2,2013-07-08 08:34:00,
2013-07-08 04:35:00,71.2,67.8,29.23,South,188,2.0,6.0,89,0.00,,,0.00,WUHU216DAVISVP2,2013-07-08 08:35:00,
2013-07-08 04:37:00,71.2,67.8,29.23,WSW,237,2.0,6.0,89,0.00,,,0.00,WUHU216DAVISVP2,2013-07-08 08:37:00,
2013-07-08 04:38:00,71.1,67.7,29.23,WSW,237,0.0,6.0,89,0.00,,,0.00,WUHU216DAVISVP2,2013-07-08 08:38:00,
2013-07-08 04:39:00,71.1,67.7,29.23,WSW,237,0.0,6.0,89,0.00,,,0.00,WUHU216DAVISVP2,2013-07-08 08:39:00,
2013-07-08 04:40:00,71.1,67.7,29.23,WSW,237,0.0,6.0,89,0.00,,,0.00,WUHU216DAVISVP2,2013-07-08 08:40:00,
2013-07-08 04:42:00,71.1,67.7,29.23,WSW,237,0.0,6.0,89,0.00,,,0.00,WUHU216DAVISVP2,2013-07-08 08:42:00,
2013-07-08 04:43:00,71.1,67.7,29.23,WSW,237,1.0,6.0,89,0.00,,,0.00,WUHU216DAVISVP2,2013-07-08 08:43:00,
2013-07-08 04:44:00,71.1,67.7,29.23,WSW,237,0.0,6.0,89,0.00,,,0.00,WUHU216DAVISVP2,2013-07-08 08:44:00,
2013-07-08 04:46:00,71.1,67.7,29.23,WSW,237,0.0,6.0,89,0.00,,,0.00,WUHU216DAVISVP2,2013-07-08 08:46:00,
2013-07-08 04:47:00,71.1,67.7,29.23,WSW,237,0.0,6.0,89,0.00,,,0.00,WUHU216DAVISVP2,2013-07-08 08:47:00,
2013-07-08 04:48:00,71.1,67.7,29.23,WSW,237,0.0,6.0,89,0.00,,,0.00,WUHU216DAVISVP2,2013-07-08 08:48:00,
2013-07-08 04:49:00,71.1,67.7,29.23,WSW,237,0.0,6.0,89,0.00,,,0.00,WUHU216DAVISVP2,2013-07-08 08:49:00,
2013-07-08 04:51:00,71.1,67.7,29.23,WSW,237,0.0,6.0,89,0.00,,,0.00,WUHU216DAVISVP2,2013-07-08 08:51:00,
2013-07-08 04:52:00,71.1,67.7,29.23,WSW,237,2.0,6.0,89,0.00,,,0.00,WUHU216DAVISVP2,2013-07-08 08:52:00,
2013-07-08 04:53:00,71.1,67.7,29.23,WSW,237,0.0,6.0,89,0.00,,,0.00,WUHU216DAVISVP2,2013-07-08 08:53:00,
2013-07-08 04:54:00,71.0,67.6,29.23,WSW,237,1.0,6.0,89,0.00,,,0.00,WUHU216DAVISVP2,2013-07-08 08:54:00,
2013-07-08 04:55:00,71.1,67.7,29.23,SW,235,1.0,6.0,89,0.00,,,0.00,WUHU216DAVISVP2,2013-07-08 08:55:00,
2013-07-08 04:56:00,71.0,67.6,29.23,SW,217,4.0,4.0,89,0.00,,,0.00,WUHU216DAVISVP2,2013-07-08 08:56:00,
2013-07-08 04:57:00,71.0,67.6,29.23,SW,216,0.0,4.0,89,0.00,,,0.00,WUHU216DAVISVP2,2013-07-08 08:57:00,
2013-07-08 04:58:00,71.0,67.6,29.23,SW,216,1.0,4.0,89,0.00,,,0.00,WUHU216DAVISVP2,2013-07-08 08:58:00,
2013-07-08 04:59:00,71.0,67.6,29.23,SW,216,1.0,4.0,89,0.00,,,0.00,WUHU216DAVISVP2,2013-07-08 08:59:00,
2013-07-08 05:01:00,71.0,67.6,29.23,SW,216,0.0,6.0,89,0.00,,,0.00,WUHU216DAVISVP2,2013-07-08 09:01:00,
2013-07-08 05:02:00,71.0,67.6,29.23,SW,214,0.0,6.0,89,0.00,,,0.00,WUHU216DAVISVP2,2013-07-08 09:02:00,
2013-07-08 05:03:00,71.0,67.6,29.23,SW,214,1.0,6.0,89,0.00,,,0.00,WUHU216DAVISVP2,2013-07-08 09:03:00,
2013-07-08 05:04:00,71.0,67.6,29.23,SW,214,1.0,6.0,89,0.00,,,0.00,WUHU216DAVISVP2,2013-07-08 09:04:00,
2013-07-08 05:06:00,71.0,67.6,29.23,SSW,193,6.0,6.0,89,0.00,,,0.00,WUHU216DAVISVP2,2013-07-08 09:06:00,
2013-07-08 05:08:00,71.0,67.6,29.23,SW,235,1.0,6.0,89,0.00,,,0.00,WUHU216DAVISVP2,2013-07-08 09:08:00,
2013-07-08 05:09:00,70.9,67.5,29.23,SW,232,0.0,6.0,89,0.00,,,0.00,WUHU216DAVISVP2,2013-07-08 09:09:00,
2013-07-08 05:11:00,70.9,67.5,29.23,WSW,237,1.0,6.0,89,0.00,,,0.00,WUHU216DAVISVP2,2013-07-08 09:11:00,
2013-07-08 05:13:00,70.9,67.8,29.23,SW,230,2.0,6.0,90,0.00,,,0.00,WUHU216DAVISVP2,2013-07-08 09:13:00,
2013-07-08 05:14:00,70.9,67.8,29.23,South,191,0.0,6.0,90,0.00,,,0.00,WUHU216DAVISVP2,2013-07-08 09:14:00,
2013-07-08 05:17:00,70.9,67.8,29.23,SSW,207,0.0,6.0,90,0.00,,,0.00,WUHU216DAVISVP2,2013-07-08 09:17:00,
2013-07-08 05:18:00,70.9,67.8,29.23,SSW,207,1.0,6.0,90,0.00,,,0.00,WUHU216DAVISVP2,2013-07-08 09:18:00,
2013-07-08 05:19:00,70.9,67.8,29.23,SSW,201,1.0,6.0,90,0.00,,,0.00,WUHU216DAVISVP2,2013-07-08 09:19:00,
2013-07-08 05:22:00,70.9,67.8,29.23,SW,231,2.0,7.0,90,0.00,,,0.00,WUHU216DAVISVP2,2013-07-08 09:22:00,
2013-07-08 05:23:00,70.9,67.8,29.23,SSW,209,2.0,7.0,90,0.00,,,0.00,WUHU216DAVISVP2,2013-07-08 09:23:00,
2013-07-08 05:24:00,70.8,67.7,29.23,SSW,201,3.0,7.0,90,0.00,,,0.00,WUHU216DAVISVP2,2013-07-08 09:24:00,
2013-07-08 05:27:00,70.8,67.7,29.23,SSW,196,3.0,7.0,90,0.00,,,0.00,WUHU216DAVISVP2,2013-07-08 09:27:00,
2013-07-08 05:28:00,70.8,67.7,29.23,SSW,196,0.0,7.0,90,0.00,,,0.00,WUHU216DAVISVP2,2013-07-08 09:28:00,
2013-07-08 05:29:00,70.8,67.7,29.23,SW,215,1.0,7.0,90,0.00,,,0.00,WUHU216DAVISVP2,2013-07-08 09:29:00,
2013-07-08 05:30:00,70.8,67.7,29.23,SW,215,0.0,7.0,90,0.00,,,0.00,WUHU216DAVISVP2,2013-07-08 09:30:00,
2013-07-08 05:32:00,70.8,67.7,29.23,SSW,198,0.0,7.0,90,0.00,,,0.00,WUHU216DAVISVP2,2013-07-08 09:32:00,
2013-07-08 05:33:00,70.8,67.7,29.23,WSW,242,6.0,8.0,90,0.00,,,0.00,WUHU216DAVISVP2,2013-07-08 09:33:00,
2013-07-08 05:34:00,70.8,67.7,29.23,WSW,239,3.0,8.0,90,0.00,,,0.00,WUHU216DAVISVP2,2013-07-08 09:34:00,
2013-07-08 05:35:00,70.9,67.8,29.23,SSW,201,1.0,8.0,90,0.00,,,0.00,WUHU216DAVISVP2,2013-07-08 09:35:00,
2013-07-08 05:36:00,70.9,67.8,29.23,SW,219,0.0,8.0,90,0.00,,,0.00,WUHU216DAVISVP2,2013-07-08 09:36:00,
2013-07-08 05:37:00,70.9,67.8,29.23,SW,219,1.0,8.0,90,0.00,,,0.00,WUHU216DAVISVP2,2013-07-08 09:37:00,
2013-07-08 05:38:00,70.9,67.8,29.23,SW,230,2.0,8.0,90,0.00,,,0.00,WUHU216DAVISVP2,2013-07-08 09:38:00,
2013-07-08 05:39:00,70.9,67.8,29.23,SW,228,4.0,8.0,90,0.00,,,0.00,WUHU216DAVISVP2,2013-07-08 09:39:00,
2013-07-08 05:40:00,70.9,67.8,29.23,SW,228,2.0,8.0,90,0.00,,,0.00,WUHU216DAVISVP2,2013-07-08 09:40:00,
2013-07-08 05:41:00,70.9,67.8,29.23,SW,228,1.0,8.0,90,0.00,,,0.00,WUHU216DAVISVP2,2013-07-08 09:41:00,
2013-07-08 05:42:00,71.0,67.9,29.23,SW,228,4.0,8.0,90,0.00,,,0.00,WUHU216DAVISVP2,2013-07-08 09:42:00,
2013-07-08 05:43:00,71.0,67.9,29.23,SW,222,2.0,8.0,90,0.00,,,0.00,WUHU216DAVISVP2,2013-07-08 09:43:00,
2013-07-08 05:44:00,71.0,67.9,29.23,SW,234,5.0,8.0,90,0.00,,,0.00,WUHU216DAVISVP2,2013-07-08 09:44:00,
2013-07-08 05:45:00,71.0,67.9,29.23,SW,234,1.0,8.0,90,0.00,,,0.00,WUHU216DAVISVP2,2013-07-08 09:45:00,
2013-07-08 05:46:00,71.0,67.9,29.22,SSW,213,4.0,8.0,90,0.00,,,0.00,WUHU216DAVISVP2,2013-07-08 09:46:00,
2013-07-08 05:47:00,71.1,68.0,29.22,WSW,247,5.0,8.0,90,0.00,,,0.00,WUHU216DAVISVP2,2013-07-08 09:47:00,
2013-07-08 05:48:00,71.1,68.0,29.22,WSW,238,4.0,8.0,90,0.00,,,0.00,WUHU216DAVISVP2,2013-07-08 09:48:00,
2013-07-08 05:50:00,71.1,68.0,29.22,WSW,238,4.0,8.0,90,0.00,,,0.00,WUHU216DAVISVP2,2013-07-08 09:50:00,
2013-07-08 05:51:00,71.2,68.1,29.22,WSW,252,5.0,8.0,90,0.00,,,0.00,WUHU216DAVISVP2,2013-07-08 09:51:00,
2013-07-08 05:53:00,71.2,68.1,29.22,WSW,252,0.0,7.0,90,0.00,,,0.00,WUHU216DAVISVP2,2013-07-08 09:53:00,
2013-07-08 05:54:00,71.2,68.1,29.22,SW,233,1.0,7.0,90,0.00,,,0.00,WUHU216DAVISVP2,2013-07-08 09:54:00,
2013-07-08 05:55:00,71.2,68.1,29.22,WSW,258,6.0,7.0,90,0.00,,,0.00,WUHU216DAVISVP2,2013-07-08 09:55:00,
2013-07-08 05:56:00,71.2,68.1,29.22,WSW,240,1.0,9.0,90,0.00,,,0.00,WUHU216DAVISVP2,2013-07-08 09:56:00,
2013-07-08 05:58:00,71.3,67.9,29.22,WSW,241,4.0,9.0,89,0.00,,,0.00,WUHU216DAVISVP2,2013-07-08 09:58:00,
2013-07-08 05:59:00,71.3,67.9,29.22,WSW,238,1.0,9.0,89,0.00,,,0.00,WUHU216DAVISVP2,2013-07-08 09:59:00,
2013-07-08 06:00:00,71.3,67.9,29.22,SW,220,4.0,9.0,89,0.00,,,0.00,WUHU216DAVISVP2,2013-07-08 10:00:00,
2013-07-08 06:01:00,71.3,67.9,29.22,SW,229,5.0,9.0,89,0.00,,,0.00,WUHU216DAVISVP2,2013-07-08 10:01:00,
2013-07-08 06:03:00,71.3,67.9,29.22,SW,217,2.0,9.0,89,0.00,,,0.00,WUHU216DAVISVP2,2013-07-08 10:03:00,
2013-07-08 06:04:00,71.3,67.9,29.22,WSW,244,5.0,9.0,89,0.00,,,0.00,WUHU216DAVISVP2,2013-07-08 10:04:00,
2013-07-08 06:05:00,71.3,67.9,29.22,WSW,244,2.0,9.0,89,0.00,,,0.00,WUHU216DAVISVP2,2013-07-08 10:05:00,
2013-07-08 06:06:00,71.3,67.9,29.22,WSW,244,4.0,9.0,89,0.00,,,0.00,WUHU216DAVISVP2,2013-07-08 10:06:00,
2013-07-08 06:09:00,71.3,67.9,29.22,WSW,244,4.0,9.0,89,0.00,,,0.00,WUHU216DAVISVP2,2013-07-08 10:09:00,
2013-07-08 06:10:00,71.4,68.0,29.22,WSW,244,8.0,9.0,89,0.00,,,0.00,WUHU216DAVISVP2,2013-07-08 10:10:00,
2013-07-08 06:11:00,71.4,68.0,29.22,WSW,246,2.0,9.0,89,0.00,,,0.00,WUHU216DAVISVP2,2013-07-08 10:11:00,
2013-07-08 06:14:00,71.4,68.0,29.22,SW,230,2.0,11.0,89,0.00,,,0.00,WUHU216DAVISVP2,2013-07-08 10:14:00,
2013-07-08 06:15:00,71.5,68.1,29.22,SW,230,5.0,11.0,89,0.00,,,0.00,WUHU216DAVISVP2,2013-07-08 10:15:00,
2013-07-08 06:16:00,71.5,68.1,29.22,WSW,254,6.0,11.0,89,0.00,,,0.00,WUHU216DAVISVP2,2013-07-08 10:16:00,
2013-07-08 06:17:00,71.5,68.1,29.22,WSW,252,8.0,11.0,89,0.00,,,0.00,WUHU216DAVISVP2,2013-07-08 10:17:00,
2013-07-08 06:19:00,71.5,68.1,29.22,WSW,254,4.0,12.0,89,0.00,,,0.00,WUHU216DAVISVP2,2013-07-08 10:19:00,
2013-07-08 06:20:00,71.5,68.1,29.22,WSW,237,6.0,12.0,89,0.00,,,0.00,WUHU216DAVISVP2,2013-07-08 10:20:00,
2013-07-08 06:21:00,71.5,68.1,29.22,WSW,241,8.0,12.0,89,0.00,,,0.00,WUHU216DAVISVP2,2013-07-08 10:21:00,
2013-07-08 06:23:00,71.5,68.1,29.22,WSW,239,5.0,12.0,89,0.00,,,0.00,WUHU216DAVISVP2,2013-07-08 10:23:00,
2013-07-08 06:24:00,71.4,68.0,29.22,WSW,244,6.0,12.0,89,0.00,,,0.00,WUHU216DAVISVP2,2013-07-08 10:24:00,
2013-07-08 06:25:00,71.5,68.1,29.22,WSW,253,8.0,12.0,89,0.00,,,0.00,WUHU216DAVISVP2,2013-07-08 10:25:00,
2013-07-08 06:26:00,71.4,68.0,29.22,WSW,246,6.0,12.0,89,0.00,,,0.00,WUHU216DAVISVP2,2013-07-08 10:26:00,
2013-07-08 06:28:00,71.5,68.1,29.22,WSW,247,4.0,12.0,89,0.00,,,0.00,WUHU216DAVISVP2,2013-07-08 10:28:00,
2013-07-08 06:30:00,71.5,68.1,29.22,WSW,242,10.0,12.0,89,0.00,,,0.00,WUHU216DAVISVP2,2013-07-08 10:30:00,
2013-07-08 06:31:00,71.5,68.1,29.22,SW,226,8.0,12.0,89,0.00,,,0.00,WUHU216DAVISVP2,2013-07-08 10:31:00,
2013-07-08 06:33:00,71.5,68.1,29.22,SW,218,2.0,12.0,89,0.00,,,0.00,WUHU216DAVISVP2,2013-07-08 10:33:00,
2013-07-08 06:35:00,71.5,68.1,29.22,WSW,243,5.0,12.0,89,0.00,,,0.00,WUHU216DAVISVP2,2013-07-08 10:35:00,
2013-07-08 06:36:00,71.5,68.1,29.22,WSW,252,5.0,12.0,89,0.00,,,0.00,WUHU216DAVISVP2,2013-07-08 10:36:00,
2013-07-08 06:37:00,71.5,68.1,29.22,WSW,252,4.0,12.0,89,0.00,,,0.00,WUHU216DAVISVP2,2013-07-08 10:37:00,
2013-07-08 06:38:00,71.5,68.1,29.22,WSW,248,2.0,12.0,89,0.00,,,0.00,WUHU216DAVISVP2,2013-07-08 10:38:00,
2013-07-08 06:40:00,71.5,68.1,29.22,WSW,245,5.0,12.0,89,0.00,,,0.00,WUHU216DAVISVP2,2013-07-08 10:40:00,
2013-07-08 06:41:00,71.5,68.1,29.22,WSW,245,2.0,12.0,89,0.00,,,0.00,WUHU216DAVISVP2,2013-07-08 10:41:00,
2013-07-08 06:43:00,71.4,68.0,29.23,WSW,245,5.0,11.0,89,0.00,,,0.00,WUHU216DAVISVP2,2013-07-08 10:43:00,
2013-07-08 06:45:00,71.4,68.0,29.22,WSW,245,0.0,11.0,89,0.00,,,0.00,WUHU216DAVISVP2,2013-07-08 10:45:00,
2013-07-08 06:46:00,71.3,67.9,29.23,WSW,245,0.0,11.0,89,0.00,,,0.00,WUHU216DAVISVP2,2013-07-08 10:46:00,
2013-07-08 06:47:00,71.3,67.9,29.23,WSW,245,4.0,11.0,89,0.00,,,0.00,WUHU216DAVISVP2,2013-07-08 10:47:00,
2013-07-08 06:48:00,71.3,67.9,29.23,WSW,245,1.0,10.0,89,0.00,,,0.00,WUHU216DAVISVP2,2013-07-08 10:48:00,
2013-07-08 06:50:00,71.3,67.9,29.23,WSW,245,1.0,10.0,89,0.00,,,0.00,WUHU216DAVISVP2,2013-07-08 10:50:00,
2013-07-08 06:52:00,71.2,67.8,29.22,WSW,243,1.0,10.0,89,0.00,,,0.00,WUHU216DAVISVP2,2013-07-08 10:52:00,
2013-07-08 06:53:00,71.2,67.8,29.23,WSW,243,0.0,8.0,89,0.00,,,0.00,WUHU216DAVISVP2,2013-07-08 10:53:00,
2013-07-08 06:55:00,71.2,67.8,29.23,WSW,243,4.0,8.0,89,0.00,,,0.00,WUHU216DAVISVP2,2013-07-08 10:55:00,
2013-07-08 06:56:00,71.2,67.8,29.23,WSW,243,4.0,8.0,89,0.00,,,0.00,WUHU216DAVISVP2,2013-07-08 10:56:00,
2013-07-08 06:57:00,71.2,68.1,29.23,WSW,243,1.0,7.0,90,0.00,,,0.00,WUHU216DAVISVP2,2013-07-08 10:57:00,
2013-07-08 06:59:00,71.1,68.0,29.23,SW,214,1.0,10.0,90,0.00,,,0.00,WUHU216DAVISVP2,2013-07-08 10:59:00,
2013-07-08 07:01:00,71.1,68.0,29.23,SW,227,0.0,10.0,90,0.00,,,0.00,WUHU216DAVISVP2,2013-07-08 11:01:00,
2013-07-08 07:02:00,71.2,68.1,29.23,WSW,247,0.0,10.0,90,0.00,,,0.00,WUHU216DAVISVP2,2013-07-08 11:02:00,
2013-07-08 07:03:00,71.1,68.0,29.23,WSW,243,4.0,10.0,90,0.00,,,0.00,WUHU216DAVISVP2,2013-07-08 11:03:00,
2013-07-08 07:04:00,71.1,68.0,29.24,WSW,242,0.0,10.0,90,0.00,,,0.00,WUHU216DAVISVP2,2013-07-08 11:04:00,
2013-07-08 07:06:00,71.2,68.1,29.24,WSW,243,3.0,10.0,90,0.00,,,0.00,WUHU216DAVISVP2,2013-07-08 11:06:00,
2013-07-08 07:07:00,71.2,68.1,29.24,WSW,243,0.0,10.0,90,0.00,,,0.00,WUHU216DAVISVP2,2013-07-08 11:07:00,
2013-07-08 07:08:00,71.2,68.1,29.24,WSW,240,5.0,10.0,90,0.00,,,0.00,WUHU216DAVISVP2,2013-07-08 11:08:00,
2013-07-08 07:09:00,71.2,68.1,29.24,WSW,247,6.0,10.0,90,0.00,,,0.00,WUHU216DAVISVP2,2013-07-08 11:09:00,
2013-07-08 07:11:00,71.3,68.2,29.23,WSW,253,7.0,10.0,90,0.00,,,0.00,WUHU216DAVISVP2,2013-07-08 11:11:00,
2013-07-08 07:12:00,71.3,68.2,29.23,WSW,237,0.0,10.0,90,0.00,,,0.00,WUHU216DAVISVP2,2013-07-08 11:12:00,
2013-07-08 07:13:00,71.3,68.2,29.23,SW,223,1.0,10.0,90,0.00,,,0.00,WUHU216DAVISVP2,2013-07-08 11:13:00,
2013-07-08 07:14:00,71.3,68.2,29.23,SW,223,1.0,10.0,90,0.00,,,0.00,WUHU216DAVISVP2,2013-07-08 11:14:00,
2013-07-08 07:16:00,71.4,68.3,29.23,WSW,242,3.0,10.0,90,0.00,,,0.00,WUHU216DAVISVP2,2013-07-08 11:16:00,
2013-07-08 07:17:00,71.4,68.3,29.23,WSW,242,1.0,10.0,90,0.00,,,0.00,WUHU216DAVISVP2,2013-07-08 11:17:00,
2013-07-08 07:18:00,71.5,68.4,29.23,SW,231,1.0,12.0,90,0.00,,,0.00,WUHU216DAVISVP2,2013-07-08 11:18:00,
2013-07-08 07:19:00,71.5,68.4,29.23,SW,231,0.0,12.0,90,0.00,,,0.00,WUHU216DAVISVP2,2013-07-08 11:19:00,
2013-07-08 07:21:00,71.5,68.1,29.23,SW,216,7.0,12.0,89,0.00,,,0.00,WUHU216DAVISVP2,2013-07-08 11:21:00,
2013-07-08 07:22:00,71.5,68.1,29.24,WSW,249,7.0,12.0,89,0.00,,,0.00,WUHU216DAVISVP2,2013-07-08 11:22:00,
2013-07-08 07:24:00,71.5,68.1,29.24,SSW,210,1.0,12.0,89,0.00,,,0.00,WUHU216DAVISVP2,2013-07-08 11:24:00,
2013-07-08 07:26:00,71.6,68.2,29.24,SW,232,3.0,12.0,89,0.00,,,0.00,WUHU216DAVISVP2,2013-07-08 11:26:00,
2013-07-08 07:27:00,71.6,68.2,29.24,SW,232,0.0,12.0,89,0.00,,,0.00,WUHU216DAVISVP2,2013-07-08 11:27:00,
2013-07-08 07:29:00,71.6,68.2,29.24,SW,235,6.0,12.0,89,0.00,,,0.00,WUHU216DAVISVP2,2013-07-08 11:29:00,
2013-07-08 07:30:00,71.6,68.2,29.24,WSW,238,6.0,12.0,89,0.00,,,0.00,WUHU216DAVISVP2,2013-07-08 11:30:00,
2013-07-08 07:31:00,71.7,68.3,29.24,WSW,238,1.0,12.0,89,0.00,,,0.00,WUHU216DAVISVP2,2013-07-08 11:31:00,
2013-07-08 07:32:00,71.7,68.3,29.24,WSW,238,2.0,12.0,89,0.00,,,0.00,WUHU216DAVISVP2,2013-07-08 11:32:00,
2013-07-08 07:34:00,71.7,68.3,29.24,WSW,238,1.0,12.0,89,0.00,,,0.00,WUHU216DAVISVP2,2013-07-08 11:34:00,
2013-07-08 07:35:00,71.8,68.4,29.24,WSW,238,4.0,12.0,89,0.00,,,0.00,WUHU216DAVISVP2,2013-07-08 11:35:00,
2013-07-08 07:37:00,71.8,68.7,29.24,WSW,238,1.0,8.0,90,0.00,,,0.00,WUHU216DAVISVP2,2013-07-08 11:37:00,
2013-07-08 07:39:00,72.0,68.6,29.24,WNW,292,6.0,8.0,89,0.00,,,0.00,WUHU216DAVISVP2,2013-07-08 11:39:00,
2013-07-08 07:40:00,72.0,68.6,29.24,WNW,292,2.0,8.0,89,0.00,,,0.00,WUHU216DAVISVP2,2013-07-08 11:40:00,
2013-07-08 07:42:00,72.1,68.7,29.24,WSW,249,0.0,8.0,89,0.00,,,0.00,WUHU216DAVISVP2,2013-07-08 11:42:00,
2013-07-08 07:44:00,72.2,68.8,29.24,WSW,243,2.0,8.0,89,0.00,,,0.00,WUHU216DAVISVP2,2013-07-08 11:44:00,
2013-07-08 07:45:00,72.3,68.9,29.24,WSW,243,1.0,8.0,89,0.00,,,0.00,WUHU216DAVISVP2,2013-07-08 11:45:00,
2013-07-08 07:47:00,72.4,69.0,29.24,WSW,243,1.0,8.0,89,0.00,,,0.00,WUHU216DAVISVP2,2013-07-08 11:47:00,
2013-07-08 07:49:00,72.6,69.2,29.24,WSW,258,4.0,11.0,89,0.00,,,0.00,WUHU216DAVISVP2,2013-07-08 11:49:00,
2013-07-08 07:50:00,72.7,69.3,29.24,WSW,257,5.0,11.0,89,0.00,,,0.00,WUHU216DAVISVP2,2013-07-08 11:50:00,
2013-07-08 07:52:00,72.9,69.1,29.23,SW,235,4.0,11.0,88,0.00,,,0.00,WUHU216DAVISVP2,2013-07-08 11:52:00,
2013-07-08 07:55:00,73.1,69.3,29.24,WSW,237,1.0,11.0,88,0.00,,,0.00,WUHU216DAVISVP2,2013-07-08 11:55:00,
2013-07-08 07:57:00,73.3,69.5,29.24,West,264,1.0,11.0,88,0.00,,,0.00,WUHU216DAVISVP2,2013-07-08 11:57:00,
2013-07-08 08:00:00,73.4,69.6,29.24,WSW,256,7.0,11.0,88,0.00,,,0.00,WUHU216DAVISVP2,2013-07-08 12:00:00,
2013-07-08 08:01:00,73.5,69.7,29.24,WSW,256,0.0,11.0,88,0.00,,,0.00,WUHU216DAVISVP2,2013-07-08 12:01:00,
2013-07-08 08:03:00,73.8,69.7,29.24,West,268,2.0,11.0,87,0.00,,,0.00,WUHU216DAVISVP2,2013-07-08 12:03:00,
2013-07-08 08:05:00,73.9,69.8,29.24,SW,228,6.0,11.0,87,0.00,,,0.00,WUHU216DAVISVP2,2013-07-08 12:05:00,
2013-07-08 08:06:00,74.0,69.9,29.23,WSW,243,6.0,15.0,87,0.00,,,0.00,WUHU216DAVISVP2,2013-07-08 12:06:00,
2013-07-08 08:08:00,74.2,69.7,29.24,WSW,253,2.0,15.0,86,0.00,,,0.00,WUHU216DAVISVP2,2013-07-08 12:08:00,
2013-07-08 08:10:00,74.3,69.8,29.24,SW,236,7.0,15.0,86,0.00,,,0.00,WUHU216DAVISVP2,2013-07-08 12:10:00,
2013-07-08 08:11:00,74.3,69.8,29.24,WSW,237,14.0,15.0,86,0.00,,,0.00,WUHU216DAVISVP2,2013-07-08 12:11:00,
2013-07-08 08:13:00,74.4,69.6,29.24,WSW,248,6.0,18.0,85,0.00,,,0.00,WUHU216DAVISVP2,2013-07-08 12:13:00,
2013-07-08 08:15:00,74.6,69.8,29.24,WSW,249,3.0,18.0,85,0.00,,,0.00,WUHU216DAVISVP2,2013-07-08 12:15:00,
2013-07-08 08:16:00,74.6,69.8,29.24,WSW,249,1.0,18.0,85,0.00,,,0.00,WUHU216DAVISVP2,2013-07-08 12:16:00,
2013-07-08 08:18:00,74.8,70.3,29.24,West,265,9.0,18.0,86,0.00,,,0.00,WUHU216DAVISVP2,2013-07-08 12:18:00,
2013-07-08 08:19:00,74.8,70.3,29.24,West,267,5.0,18.0,86,0.00,,,0.00,WUHU216DAVISVP2,2013-07-08 12:19:00,
2013-07-08 08:20:00,74.9,70.1,29.24,WSW,239,8.0,18.0,85,0.00,,,0.00,WUHU216DAVISVP2,2013-07-08 12:20:00,
2013-07-08 08:21:00,74.9,70.1,29.24,WSW,246,5.0,18.0,85,0.00,,,0.00,WUHU216DAVISVP2,2013-07-08 12:21:00,
2013-07-08 08:24:00,75.1,70.0,29.24,WSW,247,11.0,18.0,84,0.00,,,0.00,WUHU216DAVISVP2,2013-07-08 12:24:00,
2013-07-08 08:25:00,75.2,70.1,29.24,WSW,250,8.0,18.0,84,0.00,,,0.00,WUHU216DAVISVP2,2013-07-08 12:25:00,
2013-07-08 08:26:00,75.2,70.1,29.24,WSW,250,8.0,18.0,84,0.00,,,0.00,WUHU216DAVISVP2,2013-07-08 12:26:00,
2013-07-08 08:29:00,75.3,70.2,29.24,WSW,252,9.0,18.0,84,0.00,,,0.00,WUHU216DAVISVP2,2013-07-08 12:29:00,
2013-07-08 08:31:00,75.4,70.3,29.24,WSW,243,7.0,18.0,84,0.00,,,0.00,WUHU216DAVISVP2,2013-07-08 12:31:00,
2013-07-08 08:34:00,75.5,70.3,29.24,WSW,245,9.0,16.0,84,0.00,,,0.00,WUHU216DAVISVP2,2013-07-08 12:34:00,
2013-07-08 08:36:00,75.5,70.3,29.24,West,278,11.0,16.0,84,0.00,,,0.00,WUHU216DAVISVP2,2013-07-08 12:36:00,
2013-07-08 08:37:00,75.6,70.1,29.24,West,266,3.0,16.0,83,0.00,,,0.00,WUHU216DAVISVP2,2013-07-08 12:37:00,
2013-07-08 08:39:00,75.7,70.5,29.24,WSW,252,7.0,16.0,84,0.00,,,0.00,WUHU216DAVISVP2,2013-07-08 12:39:00,
2013-07-08 08:41:00,75.8,70.3,29.24,WSW,250,9.0,16.0,83,0.00,,,0.00,WUHU216DAVISVP2,2013-07-08 12:41:00,
2013-07-08 08:42:00,75.8,70.3,29.25,SW,222,8.0,16.0,83,0.00,,,0.00,WUHU216DAVISVP2,2013-07-08 12:42:00,
2013-07-08 08:44:00,75.9,70.4,29.25,WSW,253,6.0,16.0,83,0.00,,,0.00,WUHU216DAVISVP2,2013-07-08 12:44:00,
2013-07-08 08:46:00,76.0,70.5,29.25,West,264,11.0,16.0,83,0.00,,,0.00,WUHU216DAVISVP2,2013-07-08 12:46:00,
2013-07-08 08:47:00,76.0,70.2,29.25,SSW,213,4.0,14.0,82,0.00,,,0.00,WUHU216DAVISVP2,2013-07-08 12:47:00,
2013-07-08 08:49:00,76.1,70.3,29.24,West,270,7.0,15.0,82,0.00,,,0.00,WUHU216DAVISVP2,2013-07-08 12:49:00,
2013-07-08 08:51:00,76.1,70.3,29.25,West,271,6.0,15.0,82,0.00,,,0.00,WUHU216DAVISVP2,2013-07-08 12:51:00,
2013-07-08 08:52:00,76.2,70.4,29.25,WSW,258,7.0,15.0,82,0.00,,,0.00,WUHU216DAVISVP2,2013-07-08 12:52:00,
2013-07-08 08:54:00,76.2,70.3,29.24,West,281,7.0,15.0,82,0.00,,,0.00,WUHU216DAVISVP2,2013-07-08 12:54:00,
2013-07-08 08:55:00,76.2,70.3,29.24,West,275,8.0,15.0,82,0.00,,,0.00,WUHU216DAVISVP2,2013-07-08 12:55:00,
2013-07-08 08:56:00,76.3,70.5,29.24,WNW,282,8.0,15.0,82,0.00,,,0.00,WUHU216DAVISVP2,2013-07-08 12:56:00,
2013-07-08 08:57:00,76.3,70.5,29.24,WSW,251,8.0,15.0,82,0.00,,,0.00,WUHU216DAVISVP2,2013-07-08 12:57:00,
2013-07-08 09:00:00,76.4,70.6,29.24,West,261,9.0,15.0,82,0.00,,,0.00,WUHU216DAVISVP2,2013-07-08 13:00:00,
2013-07-08 09:01:00,76.4,70.6,29.25,West,261,6.0,15.0,82,0.00,,,0.00,WUHU216DAVISVP2,2013-07-08 13:01:00,
2013-07-08 09:02:00,76.5,70.7,29.25,West,272,9.0,15.0,82,0.00,,,0.00,WUHU216DAVISVP2,2013-07-08 13:02:00,
2013-07-08 09:05:00,76.5,70.7,29.24,WSW,256,7.0,15.0,82,0.00,,,0.00,WUHU216DAVISVP2,2013-07-08 13:05:00,
2013-07-08 09:06:00,76.5,70.7,29.24,WSW,254,8.0,15.0,82,0.00,,,0.00,WUHU216DAVISVP2,2013-07-08 13:06:00,
2013-07-08 09:07:00,76.5,70.7,29.24,WSW,239,9.0,15.0,82,0.00,,,0.00,WUHU216DAVISVP2,2013-07-08 13:07:00,
2013-07-08 09:08:00,76.6,70.8,29.24,WSW,256,5.0,13.0,82,0.00,,,0.00,WUHU216DAVISVP2,2013-07-08 13:08:00,
2013-07-08 09:10:00,76.7,70.9,29.24,WSW,243,4.0,12.0,82,0.00,,,0.00,WUHU216DAVISVP2,2013-07-08 13:10:00,
2013-07-08 09:11:00,76.7,70.9,29.24,WSW,244,6.0,12.0,82,0.00,,,0.00,WUHU216DAVISVP2,2013-07-08 13:11:00,
2013-07-08 09:12:00,76.7,70.5,29.24,WSW,258,9.0,12.0,81,0.00,,,0.00,WUHU216DAVISVP2,2013-07-08 13:12:00,
2013-07-08 09:13:00,76.7,70.5,29.24,West,267,4.0,12.0,81,0.00,,,0.00,WUHU216DAVISVP2,2013-07-08 13:13:00,
2013-07-08 09:15:00,76.7,70.5,29.24,West,266,9.0,12.0,81,0.00,,,0.00,WUHU216DAVISVP2,2013-07-08 13:15:00,
2013-07-08 09:16:00,76.7,70.5,29.24,WNW,284,8.0,12.0,81,0.00,,,0.00,WUHU216DAVISVP2,2013-07-08 13:16:00,
2013-07-08 09:17:00,76.7,70.9,29.25,WNW,283,6.0,12.0,82,0.00,,,0.00,WUHU216DAVISVP2,2013-07-08 13:17:00,
2013-07-08 09:18:00,76.7,70.9,29.25,West,272,6.0,12.0,82,0.00,,,0.00,WUHU216DAVISVP2,2013-07-08 13:18:00,
2013-07-08 09:20:00,76.8,70.6,29.25,WSW,240,9.0,13.0,81,0.00,,,0.00,WUHU216DAVISVP2,2013-07-08 13:20:00,
2013-07-08 09:21:00,76.8,70.6,29.25,WSW,243,11.0,13.0,81,0.00,,,0.00,WUHU216DAVISVP2,2013-07-08 13:21:00,
2013-07-08 09:23:00,76.8,70.6,29.25,WSW,256,6.0,13.0,81,0.00,,,0.00,WUHU216DAVISVP2,2013-07-08 13:23:00,
2013-07-08 09:26:00,76.9,71.1,29.25,West,268,6.0,13.0,82,0.00,,,0.00,WUHU216DAVISVP2,2013-07-08 13:26:00,
2013-07-08 09:28:00,76.9,71.1,29.24,WSW,240,16.0,16.0,82,0.00,,,0.00,WUHU216DAVISVP2,2013-07-08 13:28:00,
2013-07-08 09:31:00,77.0,70.8,29.25,WSW,251,9.0,16.0,81,0.00,,,0.00,WUHU216DAVISVP2,2013-07-08 13:31:00,
2013-07-08 09:33:00,77.0,70.8,29.24,SSW,212,1.0,16.0,81,0.00,,,0.00,WUHU216DAVISVP2,2013-07-08 13:33:00,
2013-07-08 09:36:00,77.1,70.9,29.24,West,264,7.0,16.0,81,0.00,,,0.00,WUHU216DAVISVP2,2013-07-08 13:36:00,
2013-07-08 09:38:00,77.2,71.0,29.25,West,274,11.0,16.0,81,0.00,,,0.00,WUHU216DAVISVP2,2013-07-08 13:38:00,
2013-07-08 09:41:00,77.2,71.0,29.25,West,263,8.0,16.0,81,0.00,,,0.00,WUHU216DAVISVP2,2013-07-08 13:41:00,
2013-07-08 09:43:00,77.2,70.7,29.25,West,275,8.0,16.0,80,0.00,,,0.00,WUHU216DAVISVP2,2013-07-08 13:43:00,
2013-07-08 09:44:00,77.3,70.8,29.25,West,275,6.0,16.0,80,0.00,,,0.00,WUHU216DAVISVP2,2013-07-08 13:44:00,
2013-07-08 09:46:00,77.3,70.8,29.25,WSW,257,5.0,16.0,80,0.00,,,0.00,WUHU216DAVISVP2,2013-07-08 13:46:00,
2013-07-08 09:49:00,77.3,70.8,29.25,WSW,250,8.0,13.0,80,0.00,,,0.00,WUHU216DAVISVP2,2013-07-08 13:49:00,
2013-07-08 09:51:00,77.4,70.9,29.25,West,265,6.0,12.0,80,0.00,,,0.00,WUHU216DAVISVP2,2013-07-08 13:51:00,
2013-07-08 09:54:00,77.5,70.9,29.25,WSW,258,6.0,13.0,80,0.00,,,0.00,WUHU216DAVISVP2,2013-07-08 13:54:00,
2013-07-08 09:56:00,77.6,71.0,29.25,West,272,5.0,14.0,80,0.00,,,0.00,WUHU216DAVISVP2,2013-07-08 13:56:00,
2013-07-08 09:59:00,77.7,71.1,29.25,WSW,253,5.0,14.0,80,0.00,,,0.00,WUHU216DAVISVP2,2013-07-08 13:59:00,
2013-07-08 10:02:00,77.9,71.3,29.25,West,281,10.0,14.0,80,0.00,,,0.00,WUHU216DAVISVP2,2013-07-08 14:02:00,
2013-07-08 10:04:00,78.0,71.1,29.25,WSW,245,11.0,14.0,79,0.00,,,0.00,WUHU216DAVISVP2,2013-07-08 14:04:00,
2013-07-08 10:07:00,78.1,71.2,29.25,WSW,251,12.0,16.0,79,0.00,,,0.00,WUHU216DAVISVP2,2013-07-08 14:07:00,
2013-07-08 10:09:00,78.0,70.7,29.25,West,263,5.0,21.0,78,0.00,,,0.00,WUHU216DAVISVP2,2013-07-08 14:09:00,
2013-07-08 10:12:00,78.1,70.8,29.25,West,265,4.0,21.0,78,0.00,,,0.00,WUHU216DAVISVP2,2013-07-08 14:12:00,
2013-07-08 10:14:00,78.2,70.9,29.25,WSW,257,10.0,21.0,78,0.00,,,0.00,WUHU216DAVISVP2,2013-07-08 14:14:00,
2013-07-08 10:15:00,78.2,70.9,29.25,WSW,245,10.0,21.0,78,0.00,,,0.00,WUHU216DAVISVP2,2013-07-08 14:15:00,
2013-07-08 10:17:00,78.2,70.5,29.25,West,262,11.0,21.0,77,0.00,,,0.00,WUHU216DAVISVP2,2013-07-08 14:17:00,
2013-07-08 10:19:00,78.3,70.6,29.25,SW,225,2.0,21.0,77,0.00,,,0.00,WUHU216DAVISVP2,2013-07-08 14:19:00,
2013-07-08 10:20:00,78.3,71.0,29.25,WSW,245,10.0,21.0,78,0.00,,,0.00,WUHU216DAVISVP2,2013-07-08 14:20:00,
2013-07-08 10:22:00,78.4,71.1,29.25,West,268,11.0,21.0,78,0.00,,,0.00,WUHU216DAVISVP2,2013-07-08 14:22:00,
2013-07-08 10:24:00,78.5,70.8,29.25,West,268,7.0,21.0,77,0.00,,,0.00,WUHU216DAVISVP2,2013-07-08 14:24:00,
2013-07-08 10:25:00,78.5,70.8,29.25,WSW,239,13.0,21.0,77,0.00,,,0.00,WUHU216DAVISVP2,2013-07-08 14:25:00,
2013-07-08 10:27:00,78.7,71.4,29.25,WSW,249,2.0,19.0,78,0.00,,,0.00,WUHU216DAVISVP2,2013-07-08 14:27:00,
2013-07-08 10:29:00,78.9,71.2,29.25,WSW,256,7.0,19.0,77,0.00,,,0.00,WUHU216DAVISVP2,2013-07-08 14:29:00,
2013-07-08 10:30:00,78.9,71.2,29.25,WSW,250,5.0,19.0,77,0.00,,,0.00,WUHU216DAVISVP2,2013-07-08 14:30:00,
2013-07-08 10:32:00,79.1,71.0,29.25,SW,225,4.0,19.0,76,0.00,,,0.00,WUHU216DAVISVP2,2013-07-08 14:32:00,
2013-07-08 10:33:00,79.1,71.0,29.25,SSW,204,9.0,19.0,76,0.00,,,0.00,WUHU216DAVISVP2,2013-07-08 14:33:00,
2013-07-08 10:35:00,79.1,71.0,29.25,West,274,8.0,19.0,76,0.00,,,0.00,WUHU216DAVISVP2,2013-07-08 14:35:00,
2013-07-08 10:36:00,79.1,71.0,29.25,West,264,5.0,18.0,76,0.00,,,0.00,WUHU216DAVISVP2,2013-07-08 14:36:00,
2013-07-08 10:37:00,79.2,71.1,29.25,West,266,5.0,18.0,76,0.00,,,0.00,WUHU216DAVISVP2,2013-07-08 14:37:00,
2013-07-08 10:38:00,79.2,71.1,29.25,WSW,237,3.0,18.0,76,0.00,,,0.00,WUHU216DAVISVP2,2013-07-08 14:38:00,
2013-07-08 10:40:00,79.2,71.1,29.25,West,265,7.0,18.0,76,0.00,,,0.00,WUHU216DAVISVP2,2013-07-08 14:40:00,
2013-07-08 10:41:00,79.3,70.9,29.25,West,272,6.0,18.0,75,0.00,,,0.00,WUHU216DAVISVP2,2013-07-08 14:41:00,
2013-07-08 10:42:00,79.3,71.2,29.25,WNW,302,6.0,18.0,76,0.00,,,0.00,WUHU216DAVISVP2,2013-07-08 14:42:00,
2013-07-08 10:43:00,79.3,71.2,29.25,WNW,302,6.0,18.0,76,0.00,,,0.00,WUHU216DAVISVP2,2013-07-08 14:43:00,
2013-07-08 10:46:00,79.3,71.2,29.26,West,279,7.0,18.0,76,0.00,,,0.00,WUHU216DAVISVP2,2013-07-08 14:46:00,
2013-07-08 10:48:00,79.4,71.3,29.26,West,281,7.0,18.0,76,0.00,,,0.00,WUHU216DAVISVP2,2013-07-08 14:48:00,
2013-07-08 10:51:00,79.4,71.3,29.26,WNW,286,11.0,18.0,76,0.00,,,0.00,WUHU216DAVISVP2,2013-07-08 14:51:00,
2013-07-08 10:53:00,79.3,70.9,29.26,WSW,247,9.0,16.0,75,0.00,,,0.00,WUHU216DAVISVP2,2013-07-08 14:53:00,
2013-07-08 10:56:00,79.2,70.6,29.26,WSW,253,10.0,18.0,75,0.00,,,0.00,WUHU216DAVISVP2,2013-07-08 14:56:00,
2013-07-08 10:58:00,79.3,70.9,29.26,NW,305,3.0,18.0,75,0.00,,,0.00,WUHU216DAVISVP2,2013-07-08 14:58:00,
2013-07-08 10:59:00,79.3,71.6,29.26,West,262,3.0,18.0,77,0.00,,,0.00,WUHU216DAVISVP2,2013-07-08 14:59:00,
2013-07-08 11:01:00,79.3,70.9,29.26,WSW,254,10.0,18.0,75,0.00,,,0.00,WUHU216DAVISVP2,2013-07-08 15:01:00,
2013-07-08 11:03:00,79.3,70.9,29.26,NW,310,8.0,18.0,75,0.00,,,0.00,WUHU216DAVISVP2,2013-07-08 15:03:00,
2013-07-08 11:04:00,79.3,71.2,29.26,WNW,291,6.0,18.0,76,0.00,,,0.00,WUHU216DAVISVP2,2013-07-08 15:04:00,
2013-07-08 11:06:00,79.3,71.2,29.26,WSW,253,11.0,18.0,76,0.00,,,0.00,WUHU216DAVISVP2,2013-07-08 15:06:00,
2013-07-08 11:07:00,79.3,71.2,29.26,WSW,241,4.0,18.0,76,0.00,,,0.00,WUHU216DAVISVP2,2013-07-08 15:07:00,
2013-07-08 11:08:00,79.3,71.2,29.26,West,265,7.0,18.0,76,0.00,,,0.00,WUHU216DAVISVP2,2013-07-08 15:08:00,
2013-07-08 11:09:00,79.3,71.2,29.26,West,272,10.0,18.0,76,0.00,,,0.00,WUHU216DAVISVP2,2013-07-08 15:09:00,
2013-07-08 11:11:00,79.2,71.1,29.26,WNW,298,8.0,18.0,76,0.00,,,0.00,WUHU216DAVISVP2,2013-07-08 15:11:00,
2013-07-08 11:12:00,79.2,71.1,29.26,West,281,10.0,18.0,76,0.00,,,0.00,WUHU216DAVISVP2,2013-07-08 15:12:00,
2013-07-08 11:13:00,79.1,71.0,29.27,WNW,289,12.0,16.0,76,0.00,,,0.00,WUHU216DAVISVP2,2013-07-08 15:13:00,
2013-07-08 11:14:00,79.0,70.9,29.27,NW,314,10.0,16.0,76,0.00,,,0.00,WUHU216DAVISVP2,2013-07-08 15:14:00,
2013-07-08 11:17:00,78.9,71.2,29.27,NW,304,8.0,16.0,77,0.00,,,0.00,WUHU216DAVISVP2,2013-07-08 15:17:00,
2013-07-08 11:19:00,78.8,71.1,29.26,WNW,298,5.0,16.0,77,0.00,,,0.00,WUHU216DAVISVP2,2013-07-08 15:19:00,
2013-07-08 11:22:00,78.8,70.8,29.26,West,271,8.0,16.0,76,0.00,,,0.00,WUHU216DAVISVP2,2013-07-08 15:22:00,
2013-07-08 11:24:00,78.7,71.0,29.26,West,271,13.0,16.0,77,0.00,,,0.00,WUHU216DAVISVP2,2013-07-08 15:24:00,
2013-07-08 11:25:00,78.7,70.7,29.26,West,260,11.0,16.0,76,0.00,,,0.00,WUHU216DAVISVP2,2013-07-08 15:25:00,
2013-07-08 11:27:00,78.6,70.9,29.26,West,268,6.0,16.0,77,0.00,,,0.00,WUHU216DAVISVP2,2013-07-08 15:27:00,
2013-07-08 11:29:00,78.7,71.0,29.26,WNW,291,11.0,16.0,77,0.00,,,0.00,WUHU216DAVISVP2,2013-07-08 15:29:00,
2013-07-08 11:30:00,78.7,71.0,29.26,West,270,10.0,16.0,77,0.00,,,0.00,WUHU216DAVISVP2,2013-07-08 15:30:00,
2013-07-08 11:32:00,78.5,70.8,29.27,West,266,8.0,15.0,77,0.00,,,0.00,WUHU216DAVISVP2,2013-07-08 15:32:00,
2013-07-08 11:33:00,78.5,70.8,29.27,WSW,252,6.0,15.0,77,0.00,,,0.00,WUHU216DAVISVP2,2013-07-08 15:33:00,
2013-07-08 11:34:00,78.6,70.9,29.27,WNW,290,5.0,15.0,77,0.00,,,0.00,WUHU216DAVISVP2,2013-07-08 15:34:00,
2013-07-08 11:35:00,78.6,70.9,29.27,West,268,8.0,15.0,77,0.00,,,0.00,WUHU216DAVISVP2,2013-07-08 15:35:00,
2013-07-08 11:38:00,78.6,70.9,29.27,West,276,6.0,15.0,77,0.00,,,0.00,WUHU216DAVISVP2,2013-07-08 15:38:00,
2013-07-08 11:39:00,78.7,71.0,29.27,West,273,5.0,15.0,77,0.00,,,0.00,WUHU216DAVISVP2,2013-07-08 15:39:00,
2013-07-08 11:40:00,78.7,71.0,29.27,WSW,253,9.0,15.0,77,0.00,,,0.00,WUHU216DAVISVP2,2013-07-08 15:40:00,
2013-07-08 11:43:00,78.8,71.1,29.26,WNW,284,7.0,15.0,77,0.00,,,0.00,WUHU216DAVISVP2,2013-07-08 15:43:00,
2013-07-08 11:45:00,78.8,71.1,29.26,West,279,9.0,12.0,77,0.00,,,0.00,WUHU216DAVISVP2,2013-07-08 15:45:00,
2013-07-08 11:48:00,78.7,70.9,29.26,WNW,303,8.0,13.0,77,0.00,,,0.00,WUHU216DAVISVP2,2013-07-08 15:48:00,
2013-07-08 11:50:00,78.8,71.1,29.26,NW,312,9.0,13.0,77,0.00,,,0.00,WUHU216DAVISVP2,2013-07-08 15:50:00,
2013-07-08 11:53:00,78.9,71.2,29.26,NW,304,8.0,13.0,77,0.00,,,0.00,WUHU216DAVISVP2,2013-07-08 15:53:00,
2013-07-08 11:54:00,78.9,71.2,29.26,West,268,9.0,14.0,77,0.00,,,0.00,WUHU216DAVISVP2,2013-07-08 15:54:00,
2013-07-08 11:55:00,78.9,71.2,29.27,WNW,303,7.0,14.0,77,0.00,,,0.00,WUHU216DAVISVP2,2013-07-08 15:55:00,
2013-07-08 11:58:00,78.9,71.2,29.26,WNW,293,8.0,14.0,77,0.00,,,0.00,WUHU216DAVISVP2,2013-07-08 15:58:00,
2013-07-08 11:59:00,78.9,71.2,29.26,WNW,285,7.0,14.0,77,0.00,,,0.00,WUHU216DAVISVP2,2013-07-08 15:59:00,
2013-07-08 12:00:00,79.0,71.7,29.26,SSW,213,4.0,14.0,78,0.00,,,0.00,WUHU216DAVISVP2,2013-07-08 16:00:00,
2013-07-08 12:03:00,79.0,71.3,29.26,West,277,10.0,14.0,77,0.00,,,0.00,WUHU216DAVISVP2,2013-07-08 16:03:00,
2013-07-08 12:04:00,79.0,71.3,29.26,WNW,283,8.0,14.0,77,0.00,,,0.00,WUHU216DAVISVP2,2013-07-08 16:04:00,
2013-07-08 12:05:00,79.0,71.3,29.26,West,274,8.0,14.0,77,0.00,,,0.00,WUHU216DAVISVP2,2013-07-08 16:05:00,
2013-07-08 12:06:00,79.0,71.3,29.26,West,264,8.0,14.0,77,0.00,,,0.00,WUHU216DAVISVP2,2013-07-08 16:06:00,
2013-07-08 12:08:00,79.0,71.3,29.26,West,259,8.0,14.0,77,0.00,,,0.00,WUHU216DAVISVP2,2013-07-08 16:08:00,
2013-07-08 12:09:00,79.0,71.3,29.26,West,271,7.0,14.0,77,0.00,,,0.00,WUHU216DAVISVP2,2013-07-08 16:09:00,
2013-07-08 12:11:00,78.9,71.2,29.26,WNW,295,8.0,14.0,77,0.00,,,0.00,WUHU216DAVISVP2,2013-07-08 16:11:00,
2013-07-08 12:14:00,78.9,71.2,29.27,West,274,7.0,12.0,77,0.00,,,0.00,WUHU216DAVISVP2,2013-07-08 16:14:00,
2013-07-08 12:15:00,78.9,71.2,29.27,West,262,8.0,12.0,77,0.00,,,0.00,WUHU216DAVISVP2,2013-07-08 16:15:00,
2013-07-08 12:16:00,78.9,71.1,29.27,West,262,9.0,12.0,77,0.00,,,0.00,WUHU216DAVISVP2,2013-07-08 16:16:00,
2013-07-08 12:19:00,78.8,71.5,29.27,West,272,4.0,12.0,78,0.00,,,0.00,WUHU216DAVISVP2,2013-07-08 16:19:00,
2013-07-08 12:20:00,78.8,71.5,29.26,WSW,243,6.0,12.0,78,0.00,,,0.00,WUHU216DAVISVP2,2013-07-08 16:20:00,
2013-07-08 12:21:00,78.7,71.0,29.26,West,260,10.0,12.0,77,0.00,,,0.00,WUHU216DAVISVP2,2013-07-08 16:21:00,
2013-07-08 12:24:00,78.7,71.4,29.26,WNW,301,5.0,12.0,78,0.00,,,0.00,WUHU216DAVISVP2,2013-07-08 16:24:00,
2013-07-08 12:25:00,78.7,71.0,29.26,West,266,8.0,12.0,77,0.00,,,0.00,WUHU216DAVISVP2,2013-07-08 16:25:00,
2013-07-08 12:26:00,78.6,71.3,29.26,West,259,7.0,12.0,78,0.00,,,0.00,WUHU216DAVISVP2,2013-07-08 16:26:00,
2013-07-08 12:29:00,78.5,70.8,29.26,West,279,10.0,13.0,77,0.00,,,0.00,WUHU216DAVISVP2,2013-07-08 16:29:00,
2013-07-08 12:30:00,78.5,71.2,29.26,WNW,295,5.0,13.0,78,0.00,,,0.00,WUHU216DAVISVP2,2013-07-08 16:30:00,
2013-07-08 12:31:00,78.5,71.2,29.26,West,271,7.0,13.0,78,0.00,,,0.00,WUHU216DAVISVP2,2013-07-08 16:31:00,
2013-07-08 12:32:00,78.5,71.2,29.26,West,268,6.0,13.0,78,0.00,,,0.00,WUHU216DAVISVP2,2013-07-08 16:32:00,
2013-07-08 12:34:00,78.4,71.1,29.27,WNW,289,11.0,13.0,78,0.00,,,0.00,WUHU216DAVISVP2,2013-07-08 16:34:00,
2013-07-08 12:35:00,78.3,71.0,29.27,West,281,8.0,13.0,78,0.00,,,0.00,WUHU216DAVISVP2,2013-07-08 16:35:00,
2013-07-08 12:37:00,78.3,71.4,29.27,West,274,1.0,13.0,79,0.00,,,0.00,WUHU216DAVISVP2,2013-07-08 16:37:00,
2013-07-08 12:39:00,78.2,70.9,29.27,West,278,7.0,13.0,78,0.00,,,0.00,WUHU216DAVISVP2,2013-07-08 16:39:00,
2013-07-08 12:40:00,78.2,71.3,29.27,West,274,4.0,13.0,79,0.00,,,0.00,WUHU216DAVISVP2,2013-07-08 16:40:00,
2013-07-08 12:42:00,78.2,71.3,29.26,WNW,291,6.0,13.0,79,0.00,,,0.00,WUHU216DAVISVP2,2013-07-08 16:42:00,
2013-07-08 12:44:00,78.2,71.6,29.26,WSW,248,4.0,13.0,80,0.00,,,0.00,WUHU216DAVISVP2,2013-07-08 16:44:00,
2013-07-08 12:46:00,78.3,71.7,29.26,West,274,3.0,13.0,80,0.00,,,0.00,WUHU216DAVISVP2,2013-07-08 16:46:00,
2013-07-08 12:47:00,78.2,71.6,29.27,WSW,250,7.0,13.0,80,0.00,,,0.00,WUHU216DAVISVP2,2013-07-08 16:47:00,
2013-07-08 12:50:00,78.1,71.5,29.27,WSW,243,1.0,13.0,80,0.00,,,0.00,WUHU216DAVISVP2,2013-07-08 16:50:00,
2013-07-08 12:51:00,78.1,71.9,29.27,WSW,243,0.0,13.0,81,0.00,,,0.00,WUHU216DAVISVP2,2013-07-08 16:51:00,
2013-07-08 12:52:00,78.1,71.9,29.27,WSW,243,2.0,12.0,81,0.00,,,0.00,WUHU216DAVISVP2,2013-07-08 16:52:00,
2013-07-08 12:53:00,78.1,71.9,29.27,WSW,243,2.0,12.0,81,0.00,,,0.00,WUHU216DAVISVP2,2013-07-08 16:53:00,
2013-07-08 12:55:00,78.1,71.9,29.27,WSW,254,5.0,11.0,81,0.00,,,0.00,WUHU216DAVISVP2,2013-07-08 16:55:00,
2013-07-08 12:57:00,78.1,71.9,29.27,WSW,258,7.0,11.0,81,0.00,,,0.00,WUHU216DAVISVP2,2013-07-08 16:57:00,
2013-07-08 12:58:00,78.0,71.8,29.27,WNW,286,1.0,9.0,81,0.00,,,0.00,WUHU216DAVISVP2,2013-07-08 16:58:00,
2013-07-08 13:00:00,78.1,72.2,29.26,WNW,286,1.0,9.0,82,0.00,,,0.00,WUHU216DAVISVP2,2013-07-08 17:00:00,
2013-07-08 13:02:00,78.1,71.9,29.26,WNW,285,5.0,9.0,81,0.00,,,0.00,WUHU216DAVISVP2,2013-07-08 17:02:00,
2013-07-08 13:04:00,78.1,71.9,29.27,WNW,300,6.0,9.0,81,0.00,,,0.00,WUHU216DAVISVP2,2013-07-08 17:04:00,
2013-07-08 13:05:00,78.1,71.9,29.27,WNW,289,7.0,9.0,81,0.00,,,0.00,WUHU216DAVISVP2,2013-07-08 17:05:00,
2013-07-08 13:07:00,78.0,71.8,29.27,WNW,289,9.0,9.0,81,0.00,,,0.00,WUHU216DAVISVP2,2013-07-08 17:07:00,
2013-07-08 13:08:00,78.0,71.8,29.27,NW,319,7.0,11.0,81,0.00,,,0.00,WUHU216DAVISVP2,2013-07-08 17:08:00,
2013-07-08 13:09:00,78.0,71.8,29.27,NW,308,7.0,12.0,81,0.00,,,0.00,WUHU216DAVISVP2,2013-07-08 17:09:00,
2013-07-08 13:10:00,78.0,71.8,29.27,WNW,294,7.0,12.0,81,0.00,,,0.00,WUHU216DAVISVP2,2013-07-08 17:10:00,
2013-07-08 13:12:00,78.0,71.8,29.27,WNW,286,7.0,12.0,81,0.00,,,0.00,WUHU216DAVISVP2,2013-07-08 17:12:00,
2013-07-08 13:13:00,78.0,71.7,29.27,WNW,287,5.0,13.0,81,0.00,,,0.00,WUHU216DAVISVP2,2013-07-08 17:13:00,
2013-07-08 13:14:00,78.0,72.1,29.27,WNW,287,5.0,13.0,82,0.00,,,0.00,WUHU216DAVISVP2,2013-07-08 17:14:00,
2013-07-08 13:15:00,78.0,72.1,29.27,West,264,5.0,13.0,82,0.00,,,0.00,WUHU216DAVISVP2,2013-07-08 17:15:00,
2013-07-08 13:17:00,78.1,71.9,29.27,West,274,3.0,13.0,81,0.00,,,0.00,WUHU216DAVISVP2,2013-07-08 17:17:00,
2013-07-08 13:19:00,78.1,72.2,29.26,West,266,6.0,13.0,82,0.00,,,0.00,WUHU216DAVISVP2,2013-07-08 17:19:00,
2013-07-08 13:20:00,78.1,71.9,29.26,West,271,10.0,13.0,81,0.00,,,0.00,WUHU216DAVISVP2,2013-07-08 17:20:00,
2013-07-08 13:23:00,78.1,71.5,29.26,West,272,5.0,13.0,80,0.00,,,0.00,WUHU216DAVISVP2,2013-07-08 17:23:00,
2013-07-08 13:24:00,78.2,71.6,29.26,West,270,7.0,13.0,80,0.00,,,0.00,WUHU216DAVISVP2,2013-07-08 17:24:00,
2013-07-08 13:25:00,78.2,72.0,29.26,WNW,286,5.0,13.0,81,0.00,,,0.00,WUHU216DAVISVP2,2013-07-08 17:25:00,
2013-07-08 13:27:00,78.3,72.1,29.26,West,276,4.0,13.0,81,0.00,,,0.00,WUHU216DAVISVP2,2013-07-08 17:27:00,
2013-07-08 13:28:00,78.5,72.3,29.27,WNW,300,5.0,13.0,81,0.00,,,0.00,WUHU216DAVISVP2,2013-07-08 17:28:00,
2013-07-08 13:30:00,78.7,72.4,29.27,WNW,302,3.0,13.0,81,0.00,,,0.00,WUHU216DAVISVP2,2013-07-08 17:30:00,
2013-07-08 13:33:00,78.7,71.6,29.26,WNW,297,6.0,10.0,79,0.00,,,0.00,WUHU216DAVISVP2,2013-07-08 17:33:00,
2013-07-08 13:35:00,78.7,71.8,29.26,West,262,11.0,13.0,79,0.00,,,0.00,WUHU216DAVISVP2,2013-07-08 17:35:00,
2013-07-08 13:38:00,78.4,71.5,29.26,West,262,8.0,16.0,79,0.00,,,0.00,WUHU216DAVISVP2,2013-07-08 17:38:00,
2013-07-08 13:41:00,78.2,71.3,29.26,WNW,282,8.0,16.0,79,0.00,,,0.00,WUHU216DAVISVP2,2013-07-08 17:41:00,
2013-07-08 13:43:00,78.1,71.2,29.26,WNW,294,8.0,16.0,79,0.00,,,0.00,WUHU216DAVISVP2,2013-07-08 17:43:00,
2013-07-08 13:44:00,78.1,71.2,29.26,West,264,8.0,16.0,79,0.00,,,0.00,WUHU216DAVISVP2,2013-07-08 17:44:00,
2013-07-08 13:46:00,78.1,71.5,29.26,West,265,6.0,16.0,80,0.00,,,0.00,WUHU216DAVISVP2,2013-07-08 17:46:00,
2013-07-08 13:47:00,78.1,71.5,29.26,WSW,256,8.0,16.0,80,0.00,,,0.00,WUHU216DAVISVP2,2013-07-08 17:47:00,
2013-07-08 13:49:00,78.0,71.4,29.26,WSW,245,4.0,16.0,80,0.00,,,0.00,WUHU216DAVISVP2,2013-07-08 17:49:00,
2013-07-08 13:51:00,78.0,71.4,29.26,WNW,290,4.0,16.0,80,0.00,,,0.00,WUHU216DAVISVP2,2013-07-08 17:51:00,
2013-07-08 13:52:00,77.9,71.3,29.26,WNW,289,4.0,16.0,80,0.00,,,0.00,WUHU216DAVISVP2,2013-07-08 17:52:00,
2013-07-08 13:54:00,77.9,71.3,29.26,West,272,6.0,16.0,80,0.00,,,0.00,WUHU216DAVISVP2,2013-07-08 17:54:00,
2013-07-08 13:57:00,77.8,71.2,29.26,West,269,6.0,14.0,80,0.00,,,0.00,WUHU216DAVISVP2,2013-07-08 17:57:00,
2013-07-08 13:59:00,77.8,70.9,29.26,NW,312,5.0,14.0,79,0.00,,,0.00,WUHU216DAVISVP2,2013-07-08 17:59:00,
2013-07-08 14:00:00,77.7,70.8,29.26,WNW,285,6.0,14.0,79,0.00,,,0.00,WUHU216DAVISVP2,2013-07-08 18:00:00,
2013-07-08 14:02:00,77.7,71.1,29.26,WNW,292,9.0,11.0,80,0.00,,,0.00,WUHU216DAVISVP2,2013-07-08 18:02:00,
2013-07-08 14:03:00,77.6,70.7,29.26,WNW,294,7.0,11.0,79,0.00,,,0.00,WUHU216DAVISVP2,2013-07-08 18:03:00,
2013-07-08 14:04:00,77.6,71.0,29.26,West,266,6.0,11.0,80,0.00,,,0.00,WUHU216DAVISVP2,2013-07-08 18:04:00,
2013-07-08 14:05:00,77.5,70.9,29.26,West,278,4.0,11.0,80,0.00,,,0.00,WUHU216DAVISVP2,2013-07-08 18:05:00,
2013-07-08 14:09:00,77.4,70.9,29.26,WNW,288,5.0,11.0,80,0.00,,,0.00,WUHU216DAVISVP2,2013-07-08 18:09:00,
2013-07-08 14:10:00,77.3,71.1,29.26,WNW,288,2.0,11.0,81,0.00,,,0.00,WUHU216DAVISVP2,2013-07-08 18:10:00,
2013-07-08 14:14:00,77.2,70.9,29.26,WNW,283,5.0,11.0,81,0.00,,,0.00,WUHU216DAVISVP2,2013-07-08 18:14:00,
2013-07-08 14:16:00,77.1,70.9,29.26,WNW,298,6.0,11.0,81,0.00,,,0.00,WUHU216DAVISVP2,2013-07-08 18:16:00,
2013-07-08 14:20:00,77.1,70.9,29.26,WNW,297,6.0,11.0,81,0.00,,,0.00,WUHU216DAVISVP2,2013-07-08 18:20:00,
2013-07-08 14:23:00,77.0,71.2,29.26,WNW,303,5.0,11.0,82,0.00,,,0.00,WUHU216DAVISVP2,2013-07-08 18:23:00,
2013-07-08 14:26:00,76.9,71.1,29.27,WNW,299,7.0,11.0,82,0.00,,,0.00,WUHU216DAVISVP2,2013-07-08 18:26:00,
2013-07-08 14:28:00,76.9,71.1,29.27,WNW,303,6.0,9.0,82,0.00,,,0.00,WUHU216DAVISVP2,2013-07-08 18:28:00,
2013-07-08 14:32:00,76.8,71.2,29.26,NW,305,2.0,9.0,83,0.00,,,0.00,WUHU216DAVISVP2,2013-07-08 18:32:00,
2013-07-08 14:34:00,76.8,71.6,29.26,WNW,289,6.0,9.0,84,0.00,,,0.00,WUHU216DAVISVP2,2013-07-08 18:34:00,
2013-07-08 14:37:00,76.7,71.6,29.26,WNW,296,6.0,9.0,84,0.00,,,0.00,WUHU216DAVISVP2,2013-07-08 18:37:00,
2013-07-08 14:41:00,76.6,71.8,29.26,WNW,302,4.0,9.0,85,0.00,,,0.00,WUHU216DAVISVP2,2013-07-08 18:41:00,
2013-07-08 14:42:00,76.6,71.8,29.26,WNW,302,2.0,9.0,85,0.00,,,0.00,WUHU216DAVISVP2,2013-07-08 18:42:00,
2013-07-08 14:46:00,76.5,71.7,29.25,WNW,302,2.0,7.0,85,0.00,,,0.00,WUHU216DAVISVP2,2013-07-08 18:46:00,
2013-07-08 14:48:00,76.5,71.7,29.25,WNW,302,1.0,7.0,85,0.00,,,0.00,WUHU216DAVISVP2,2013-07-08 18:48:00,
2013-07-08 14:50:00,76.4,71.6,29.25,WNW,302,1.0,7.0,85,0.00,,,0.00,WUHU216DAVISVP2,2013-07-08 18:50:00,
2013-07-08 14:51:00,76.4,71.6,29.25,WNW,302,4.0,7.0,85,0.00,,,0.00,WUHU216DAVISVP2,2013-07-08 18:51:00,
2013-07-08 14:53:00,76.4,71.6,29.26,WNW,302,5.0,7.0,85,0.00,,,0.00,WUHU216DAVISVP2,2013-07-08 18:53:00,
2013-07-08 14:56:00,76.3,71.8,29.26,WNW,293,2.0,8.0,86,0.00,,,0.00,WUHU216DAVISVP2,2013-07-08 18:56:00,
2013-07-08 14:58:00,76.3,71.8,29.25,WNW,293,2.0,8.0,86,0.00,,,0.00,WUHU216DAVISVP2,2013-07-08 18:58:00,
2013-07-08 15:01:00,76.3,71.8,29.26,WNW,293,1.0,8.0,86,0.00,,,0.00,WUHU216DAVISVP2,2013-07-08 19:01:00,
2013-07-08 15:02:00,76.3,71.8,29.26,WNW,293,1.0,8.0,86,0.00,,,0.00,WUHU216DAVISVP2,2013-07-08 19:02:00,
2013-07-08 15:04:00,76.4,71.9,29.26,WNW,293,2.0,8.0,86,0.00,,,0.00,WUHU216DAVISVP2,2013-07-08 19:04:00,
2013-07-08 15:08:00,76.5,72.0,29.26,WNW,293,4.0,8.0,86,0.00,,,0.00,WUHU216DAVISVP2,2013-07-08 19:08:00,
2013-07-08 15:09:00,76.7,72.2,29.26,WNW,295,6.0,8.0,86,0.00,,,0.00,WUHU216DAVISVP2,2013-07-08 19:09:00,
2013-07-08 15:13:00,76.8,72.3,29.26,WNW,295,4.0,7.0,86,0.00,,,0.00,WUHU216DAVISVP2,2013-07-08 19:13:00,
2013-07-08 15:15:00,76.8,72.3,29.26,WNW,293,8.0,10.0,86,0.00,,,0.00,WUHU216DAVISVP2,2013-07-08 19:15:00,
2013-07-08 15:18:00,76.6,72.1,29.25,NW,305,4.0,10.0,86,0.00,,,0.00,WUHU216DAVISVP2,2013-07-08 19:18:00,
2013-07-08 15:21:00,76.6,72.1,29.25,West,280,8.0,10.0,86,0.00,,,0.00,WUHU216DAVISVP2,2013-07-08 19:21:00,
2013-07-08 15:23:00,76.5,72.0,29.25,WNW,283,5.0,10.0,86,0.00,,,0.00,WUHU216DAVISVP2,2013-07-08 19:23:00,
2013-07-08 15:24:00,76.5,72.0,29.25,WNW,283,6.0,10.0,86,0.00,,,0.00,WUHU216DAVISVP2,2013-07-08 19:24:00,
2013-07-08 15:26:00,76.5,72.0,29.25,West,274,1.0,10.0,86,0.00,,,0.00,WUHU216DAVISVP2,2013-07-08 19:26:00,
2013-07-08 15:29:00,76.6,72.1,29.25,West,261,11.0,11.0,86,0.00,,,0.00,WUHU216DAVISVP2,2013-07-08 19:29:00,
2013-07-08 15:30:00,76.6,72.1,29.24,West,280,5.0,11.0,86,0.00,,,0.00,WUHU216DAVISVP2,2013-07-08 19:30:00,
2013-07-08 15:33:00,76.6,72.1,29.23,WSW,256,7.0,12.0,86,0.00,,,0.00,WUHU216DAVISVP2,2013-07-08 19:33:00,
2013-07-08 15:34:00,76.6,72.1,29.24,SW,233,9.0,12.0,86,0.00,,,0.00,WUHU216DAVISVP2,2013-07-08 19:34:00,
2013-07-08 15:36:00,76.6,72.1,29.23,West,261,6.0,12.0,86,0.00,,,0.00,WUHU216DAVISVP2,2013-07-08 19:36:00,
2013-07-08 15:38:00,76.5,72.0,29.23,WSW,242,4.0,12.0,86,0.00,,,0.00,WUHU216DAVISVP2,2013-07-08 19:38:00,
2013-07-08 15:40:00,76.5,72.0,29.23,WSW,247,7.0,14.0,86,0.00,,,0.00,WUHU216DAVISVP2,2013-07-08 19:40:00,
2013-07-08 15:41:00,76.5,72.4,29.23,WSW,254,5.0,14.0,87,0.00,,,0.00,WUHU216DAVISVP2,2013-07-08 19:41:00,
2013-07-08 15:43:00,76.5,72.4,29.23,WSW,241,10.0,14.0,87,0.00,,,0.00,WUHU216DAVISVP2,2013-07-08 19:43:00,
2013-07-08 15:45:00,76.4,72.3,29.23,West,272,8.0,14.0,87,0.00,,,0.00,WUHU216DAVISVP2,2013-07-08 19:45:00,
2013-07-08 15:47:00,76.4,72.2,29.24,WSW,258,9.0,14.0,87,0.00,,,0.00,WUHU216DAVISVP2,2013-07-08 19:47:00,
2013-07-08 15:48:00,76.4,72.2,29.24,WSW,249,7.0,14.0,87,0.00,,,0.00,WUHU216DAVISVP2,2013-07-08 19:48:00,
2013-07-08 15:50:00,76.4,72.2,29.23,WSW,253,10.0,14.0,87,0.00,,,0.00,WUHU216DAVISVP2,2013-07-08 19:50:00,
2013-07-08 15:52:00,76.3,72.5,29.23,WSW,239,10.0,14.0,88,0.00,,,0.00,WUHU216DAVISVP2,2013-07-08 19:52:00,
2013-07-08 15:55:00,76.2,72.4,29.22,SW,216,6.0,14.0,88,0.00,,,0.00,WUHU216DAVISVP2,2013-07-08 19:55:00,
2013-07-08 15:57:00,76.0,72.2,29.22,WSW,249,9.0,18.0,88,0.00,,,0.00,WUHU216DAVISVP2,2013-07-08 19:57:00,
2013-07-08 16:00:00,75.8,72.3,29.21,SSW,210,1.0,18.0,89,0.00,,,0.00,WUHU216DAVISVP2,2013-07-08 20:00:00,
2013-07-08 16:02:00,75.7,72.2,29.20,SSW,201,5.0,18.0,89,0.00,,,0.00,WUHU216DAVISVP2,2013-07-08 20:02:00,
2013-07-08 16:03:00,75.6,72.1,29.20,SSW,209,0.0,18.0,89,0.00,,,0.00,WUHU216DAVISVP2,2013-07-08 20:03:00,
2013-07-08 16:05:00,75.3,71.8,29.20,SW,220,2.0,18.0,89,0.00,,,0.00,WUHU216DAVISVP2,2013-07-08 20:05:00,
2013-07-08 16:07:00,75.2,72.1,29.20,SW,223,6.0,18.0,90,0.00,,,0.00,WUHU216DAVISVP2,2013-07-08 20:07:00,
2013-07-08 16:08:00,75.1,72.0,29.20,South,191,0.0,18.0,90,0.00,,,0.00,WUHU216DAVISVP2,2013-07-08 20:08:00,
2013-07-08 16:12:00,75.0,72.2,29.20,South,191,1.0,18.0,91,0.00,,,0.00,WUHU216DAVISVP2,2013-07-08 20:12:00,
2013-07-08 16:13:00,75.0,72.2,29.20,SE,127,3.0,18.0,91,0.00,,,0.00,WUHU216DAVISVP2,2013-07-08 20:13:00,
2013-07-08 16:14:00,74.9,72.1,29.20,SE,127,0.0,18.0,91,0.00,,,0.00,WUHU216DAVISVP2,2013-07-08 20:14:00,
2013-07-08 16:19:00,75.0,72.2,29.20,SE,127,0.0,10.0,91,0.00,,,0.00,WUHU216DAVISVP2,2013-07-08 20:19:00,
2013-07-08 16:24:00,75.3,72.8,29.20,SE,127,0.0,9.0,92,0.00,,,0.00,WUHU216DAVISVP2,2013-07-08 20:24:00,
2013-07-08 16:29:00,75.7,73.2,29.20,South,174,4.0,5.0,92,0.00,,,0.00,WUHU216DAVISVP2,2013-07-08 20:29:00,
2013-07-08 16:30:00,75.7,73.2,29.20,South,180,0.0,5.0,92,0.00,,,0.00,WUHU216DAVISVP2,2013-07-08 20:30:00,
2013-07-08 16:34:00,76.3,73.8,29.19,SSW,208,0.0,6.0,92,0.00,,,0.00,WUHU216DAVISVP2,2013-07-08 20:34:00,
2013-07-08 16:36:00,76.3,73.5,29.19,SSW,208,0.0,6.0,91,0.00,,,0.00,WUHU216DAVISVP2,2013-07-08 20:36:00,
2013-07-08 16:40:00,76.6,73.8,29.19,SSW,208,2.0,6.0,91,0.00,,,0.00,WUHU216DAVISVP2,2013-07-08 20:40:00,
2013-07-08 16:41:00,76.7,73.9,29.19,SSW,195,0.0,6.0,91,0.00,,,0.00,WUHU216DAVISVP2,2013-07-08 20:41:00,
2013-07-08 16:45:00,77.1,74.3,29.19,WSW,245,5.0,9.0,91,0.00,,,0.00,WUHU216DAVISVP2,2013-07-08 20:45:00,
2013-07-08 16:47:00,77.2,74.0,29.19,WSW,244,9.0,9.0,90,0.00,,,0.00,WUHU216DAVISVP2,2013-07-08 20:47:00,
2013-07-08 16:50:00,77.6,74.1,29.20,SSW,211,3.0,14.0,89,0.00,,,0.00,WUHU216DAVISVP2,2013-07-08 20:50:00,
2013-07-08 16:51:00,77.8,74.3,29.19,WSW,247,7.0,14.0,89,0.00,,,0.00,WUHU216DAVISVP2,2013-07-08 20:51:00,
2013-07-08 16:52:00,78.0,74.2,29.19,WSW,243,9.0,14.0,88,0.00,,,0.00,WUHU216DAVISVP2,2013-07-08 20:52:00,
2013-07-08 16:55:00,78.3,74.1,29.19,SW,216,6.0,14.0,87,0.00,,,0.00,WUHU216DAVISVP2,2013-07-08 20:55:00,
2013-07-08 16:57:00,78.4,74.2,29.19,WSW,237,7.0,14.0,87,0.00,,,0.00,WUHU216DAVISVP2,2013-07-08 20:57:00,
2013-07-08 17:02:00,78.8,74.6,29.18,SW,235,4.0,14.0,87,0.00,,,0.00,WUHU216DAVISVP2,2013-07-08 21:02:00,
2013-07-08 17:07:00,79.1,74.6,29.18,WSW,250,6.0,14.0,86,0.00,,,0.00,WUHU216DAVISVP2,2013-07-08 21:07:00,
2013-07-08 17:08:00,79.2,74.7,29.18,WSW,239,5.0,14.0,86,0.00,,,0.00,WUHU216DAVISVP2,2013-07-08 21:08:00,
2013-07-08 17:13:00,79.7,74.8,29.18,SW,236,5.0,13.0,85,0.00,,,0.00,WUHU216DAVISVP2,2013-07-08 21:13:00,
2013-07-08 17:14:00,79.7,75.2,29.18,SSW,211,4.0,13.0,86,0.00,,,0.00,WUHU216DAVISVP2,2013-07-08 21:14:00,
2013-07-08 17:18:00,80.2,75.0,29.18,SW,226,4.0,13.0,84,0.00,,,0.00,WUHU216DAVISVP2,2013-07-08 21:18:00,
2013-07-08 17:19:00,80.3,75.1,29.18,SW,220,5.0,13.0,84,0.00,,,0.00,WUHU216DAVISVP2,2013-07-08 21:19:00,
2013-07-08 17:20:00,80.3,75.1,29.18,SW,220,5.0,13.0,84,0.00,,,0.00,WUHU216DAVISVP2,2013-07-08 21:20:00,
2013-07-08 17:24:00,80.6,75.0,29.18,WSW,241,15.0,15.0,83,0.00,,,0.00,WUHU216DAVISVP2,2013-07-08 21:24:00,
2013-07-08 17:25:00,80.8,74.9,29.18,SSW,193,8.0,15.0,82,0.00,,,0.00,WUHU216DAVISVP2,2013-07-08 21:25:00,
2013-07-08 17:30:00,81.1,74.8,29.18,WSW,243,7.0,18.0,81,0.00,,,0.00,WUHU216DAVISVP2,2013-07-08 21:30:00,
2013-07-08 17:31:00,81.2,74.6,29.18,WSW,242,11.0,22.0,80,0.00,,,0.00,WUHU216DAVISVP2,2013-07-08 21:31:00,
2013-07-08 17:35:00,81.1,73.7,29.18,WSW,242,20.0,22.0,78,0.00,,,0.00,WUHU216DAVISVP2,2013-07-08 21:35:00,
2013-07-08 17:36:00,81.0,73.6,29.18,SW,228,8.0,22.0,78,0.00,,,0.00,WUHU216DAVISVP2,2013-07-08 21:36:00,
2013-07-08 17:42:00,80.9,73.5,29.18,WSW,242,12.0,22.0,78,0.00,,,0.00,WUHU216DAVISVP2,2013-07-08 21:42:00,
2013-07-08 17:44:00,80.9,73.5,29.18,WSW,247,13.0,22.0,78,0.00,,,0.00,WUHU216DAVISVP2,2013-07-08 21:44:00,
2013-07-08 17:47:00,81.0,73.9,29.18,SW,228,3.0,22.0,79,0.00,,,0.00,WUHU216DAVISVP2,2013-07-08 21:47:00,
2013-07-08 17:49:00,81.1,74.1,29.18,SSW,211,11.0,22.0,79,0.00,,,0.00,WUHU216DAVISVP2,2013-07-08 21:49:00,
2013-07-08 17:50:00,81.1,73.7,29.18,WSW,258,10.0,22.0,78,0.00,,,0.00,WUHU216DAVISVP2,2013-07-08 21:50:00,
2013-07-08 17:54:00,81.4,74.0,29.17,South,187,6.0,22.0,78,0.00,,,0.00,WUHU216DAVISVP2,2013-07-08 21:54:00,
2013-07-08 17:55:00,81.5,74.1,29.17,WSW,247,6.0,19.0,78,0.00,,,0.00,WUHU216DAVISVP2,2013-07-08 21:55:00,
2013-07-08 17:56:00,81.5,74.1,29.17,West,262,10.0,19.0,78,0.00,,,0.00,WUHU216DAVISVP2,2013-07-08 21:56:00,
2013-07-08 17:59:00,81.6,73.8,29.17,WSW,248,11.0,19.0,77,0.00,,,0.00,WUHU216DAVISVP2,2013-07-08 21:59:00,
2013-07-08 18:01:00,81.7,73.9,29.17,SW,231,9.0,18.0,77,0.00,,,0.00,WUHU216DAVISVP2,2013-07-08 22:01:00,
2013-07-08 18:04:00,81.8,74.0,29.17,WSW,256,15.0,18.0,77,0.00,,,0.00,WUHU216DAVISVP2,2013-07-08 22:04:00,
2013-07-08 18:06:00,81.8,74.0,29.18,WSW,251,10.0,20.0,77,0.00,,,0.00,WUHU216DAVISVP2,2013-07-08 22:06:00,
2013-07-08 18:10:00,82.0,73.9,29.17,WSW,255,13.0,20.0,76,0.00,,,0.00,WUHU216DAVISVP2,2013-07-08 22:10:00,
2013-07-08 18:11:00,82.0,73.9,29.17,WSW,255,13.0,20.0,76,0.00,,,0.00,WUHU216DAVISVP2,2013-07-08 22:11:00,
2013-07-08 18:12:00,82.1,73.6,29.17,WSW,237,10.0,20.0,75,0.00,,,0.00,WUHU216DAVISVP2,2013-07-08 22:12:00,
2013-07-08 18:16:00,82.3,73.8,29.17,WSW,239,11.0,20.0,75,0.00,,,0.00,WUHU216DAVISVP2,2013-07-08 22:16:00,
2013-07-08 18:18:00,82.4,73.5,29.17,WSW,250,10.0,20.0,74,0.00,,,0.00,WUHU216DAVISVP2,2013-07-08 22:18:00,
2013-07-08 18:22:00,82.4,73.5,29.17,WSW,243,13.0,20.0,74,0.00,,,0.00,WUHU216DAVISVP2,2013-07-08 22:22:00,
2013-07-08 18:24:00,82.4,73.5,29.17,West,266,6.0,23.0,74,0.00,,,0.00,WUHU216DAVISVP2,2013-07-08 22:24:00,
2013-07-08 18:27:00,82.4,73.5,29.17,West,271,12.0,23.0,74,0.00,,,0.00,WUHU216DAVISVP2,2013-07-08 22:27:00,
2013-07-08 18:29:00,82.4,73.5,29.17,WSW,248,9.0,23.0,74,0.00,,,0.00,WUHU216DAVISVP2,2013-07-08 22:29:00,
2013-07-08 18:32:00,82.4,73.9,29.17,West,260,5.0,23.0,75,0.00,,,0.00,WUHU216DAVISVP2,2013-07-08 22:32:00,
2013-07-08 18:34:00,82.5,74.0,29.17,WSW,254,7.0,23.0,75,0.00,,,0.00,WUHU216DAVISVP2,2013-07-08 22:34:00,
2013-07-08 18:36:00,82.5,74.0,29.17,West,269,7.0,23.0,75,0.00,,,0.00,WUHU216DAVISVP2,2013-07-08 22:36:00,
2013-07-08 18:37:00,82.5,74.0,29.17,WSW,255,13.0,23.0,75,0.00,,,0.00,WUHU216DAVISVP2,2013-07-08 22:37:00,
2013-07-08 18:39:00,82.5,74.0,29.17,WSW,258,14.0,23.0,75,0.00,,,0.00,WUHU216DAVISVP2,2013-07-08 22:39:00,
2013-07-08 18:41:00,82.5,74.0,29.17,WSW,243,12.0,23.0,75,0.00,,,0.00,WUHU216DAVISVP2,2013-07-08 22:41:00,
2013-07-08 18:43:00,82.5,74.0,29.17,West,264,8.0,19.0,75,0.00,,,0.00,WUHU216DAVISVP2,2013-07-08 22:43:00,
2013-07-08 18:44:00,82.4,73.9,29.17,WSW,248,11.0,19.0,75,0.00,,,0.00,WUHU216DAVISVP2,2013-07-08 22:44:00,
2013-07-08 18:46:00,82.3,73.8,29.17,SSW,199,5.0,19.0,75,0.00,,,0.00,WUHU216DAVISVP2,2013-07-08 22:46:00,
2013-07-08 18:48:00,82.2,73.7,29.17,West,261,9.0,19.0,75,0.00,,,0.00,WUHU216DAVISVP2,2013-07-08 22:48:00,
2013-07-08 18:49:00,82.2,73.7,29.17,West,275,6.0,19.0,75,0.00,,,0.00,WUHU216DAVISVP2,2013-07-08 22:49:00,
2013-07-08 18:51:00,82.1,73.6,29.17,WSW,243,14.0,19.0,75,0.00,,,0.00,WUHU216DAVISVP2,2013-07-08 22:51:00,
2013-07-08 18:53:00,82.1,73.6,29.17,WSW,254,6.0,19.0,75,0.00,,,0.00,WUHU216DAVISVP2,2013-07-08 22:53:00,
2013-07-08 18:56:00,82.1,74.0,29.17,SW,233,4.0,19.0,76,0.00,,,0.00,WUHU216DAVISVP2,2013-07-08 22:56:00,
2013-07-08 18:57:00,82.0,73.9,29.17,West,260,12.0,19.0,76,0.00,,,0.00,WUHU216DAVISVP2,2013-07-08 22:57:00,
2013-07-08 18:58:00,82.1,73.6,29.17,West,274,10.0,19.0,75,0.00,,,0.00,WUHU216DAVISVP2,2013-07-08 22:58:00,
2013-07-08 19:02:00,82.1,74.0,29.17,WSW,239,9.0,19.0,76,0.00,,,0.00,WUHU216DAVISVP2,2013-07-08 23:02:00,
2013-07-08 19:03:00,82.1,74.0,29.17,West,268,5.0,18.0,76,0.00,,,0.00,WUHU216DAVISVP2,2013-07-08 23:03:00,
2013-07-08 19:04:00,82.1,74.0,29.17,West,268,5.0,18.0,76,0.00,,,0.00,WUHU216DAVISVP2,2013-07-08 23:04:00,
2013-07-08 19:08:00,82.1,74.0,29.17,WSW,258,8.0,18.0,76,0.00,,,0.00,WUHU216DAVISVP2,2013-07-08 23:08:00,
2013-07-08 19:09:00,82.1,74.0,29.17,WNW,292,9.0,18.0,76,0.00,,,0.00,WUHU216DAVISVP2,2013-07-08 23:09:00,
2013-07-08 19:10:00,82.1,74.0,29.18,West,262,10.0,18.0,76,0.00,,,0.00,WUHU216DAVISVP2,2013-07-08 23:10:00,
2013-07-08 19:14:00,82.1,74.0,29.17,West,276,9.0,16.0,76,0.00,,,0.00,WUHU216DAVISVP2,2013-07-08 23:14:00,
2013-07-08 19:15:00,82.1,74.0,29.17,West,260,9.0,16.0,76,0.00,,,0.00,WUHU216DAVISVP2,2013-07-08 23:15:00,
2013-07-08 19:20:00,82.1,74.0,29.17,WSW,247,10.0,16.0,76,0.00,,,0.00,WUHU216DAVISVP2,2013-07-08 23:20:00,
2013-07-08 19:23:00,82.1,74.0,29.17,WSW,258,11.0,16.0,76,0.00,,,0.00,WUHU216DAVISVP2,2013-07-08 23:23:00,
2013-07-08 19:25:00,82.1,74.0,29.17,West,277,7.0,16.0,76,0.00,,,0.00,WUHU216DAVISVP2,2013-07-08 23:25:00,
2013-07-08 19:27:00,82.1,74.0,29.17,WNW,293,5.0,16.0,76,0.00,,,0.00,WUHU216DAVISVP2,2013-07-08 23:27:00,
2013-07-08 19:28:00,82.0,73.9,29.17,West,281,6.0,16.0,76,0.00,,,0.00,WUHU216DAVISVP2,2013-07-08 23:28:00,
2013-07-08 19:32:00,82.0,73.9,29.18,WSW,255,6.0,15.0,76,0.00,,,0.00,WUHU216DAVISVP2,2013-07-08 23:32:00,
2013-07-08 19:33:00,82.0,73.9,29.18,WNW,298,12.0,14.0,76,0.00,,,0.00,WUHU216DAVISVP2,2013-07-08 23:33:00,
2013-07-08 19:34:00,82.0,73.9,29.18,West,260,7.0,14.0,76,0.00,,,0.00,WUHU216DAVISVP2,2013-07-08 23:34:00,
2013-07-08 19:38:00,82.0,73.9,29.17,West,264,7.0,14.0,76,0.00,,,0.00,WUHU216DAVISVP2,2013-07-08 23:38:00,
2013-07-08 19:39:00,82.0,73.9,29.17,SW,217,2.0,14.0,76,0.00,,,0.00,WUHU216DAVISVP2,2013-07-08 23:39:00,
2013-07-08 19:43:00,82.0,74.2,29.18,WSW,247,6.0,13.0,77,0.00,,,0.00,WUHU216DAVISVP2,2013-07-08 23:43:00,
2013-07-08 19:45:00,81.9,74.1,29.18,West,281,12.0,13.0,77,0.00,,,0.00,WUHU216DAVISVP2,2013-07-08 23:45:00,
2013-07-08 19:49:00,81.8,74.0,29.18,WSW,245,9.0,18.0,77,0.00,,,0.00,WUHU216DAVISVP2,2013-07-08 23:49:00,
2013-07-08 19:50:00,81.8,74.0,29.18,WNW,289,6.0,18.0,77,0.00,,,0.00,WUHU216DAVISVP2,2013-07-08 23:50:00,
2013-07-08 19:55:00,81.7,73.9,29.18,WSW,247,5.0,18.0,77,0.00,,,0.00,WUHU216DAVISVP2,2013-07-08 23:55:00,
2013-07-08 19:56:00,81.7,73.9,29.18,WNW,283,5.0,18.0,77,0.00,,,0.00,WUHU216DAVISVP2,2013-07-08 23:56:00,
2013-07-08 20:00:00,81.8,74.0,29.18,WNW,285,8.0,18.0,77,0.00,,,0.00,WUHU216DAVISVP2,2013-07-09 00:00:00,
2013-07-08 20:03:00,81.9,74.1,29.18,WSW,256,5.0,18.0,77,0.00,,,0.00,WUHU216DAVISVP2,2013-07-09 00:03:00,
2013-07-08 20:06:00,82.0,74.2,29.18,West,272,5.0,15.0,77,0.00,,,0.00,WUHU216DAVISVP2,2013-07-09 00:06:00,
2013-07-08 20:08:00,82.1,74.0,29.18,West,274,6.0,14.0,76,0.00,,,0.00,WUHU216DAVISVP2,2013-07-09 00:08:00,
2013-07-08 20:11:00,82.1,74.0,29.19,WSW,256,9.0,14.0,76,0.00,,,0.00,WUHU216DAVISVP2,2013-07-09 00:11:00,
2013-07-08 20:14:00,82.1,74.0,29.19,WNW,299,9.0,13.0,76,0.00,,,0.00,WUHU216DAVISVP2,2013-07-09 00:14:00,
2013-07-08 20:17:00,82.1,74.0,29.18,West,262,4.0,13.0,76,0.00,,,0.00,WUHU216DAVISVP2,2013-07-09 00:17:00,
2013-07-08 20:18:00,82.0,73.9,29.18,WNW,283,7.0,13.0,76,0.00,,,0.00,WUHU216DAVISVP2,2013-07-09 00:18:00,
2013-07-08 20:19:00,82.0,73.9,29.18,WSW,253,2.0,13.0,76,0.00,,,0.00,WUHU216DAVISVP2,2013-07-09 00:19:00,
2013-07-08 20:22:00,82.0,73.9,29.18,WSW,249,6.0,13.0,76,0.00,,,0.00,WUHU216DAVISVP2,2013-07-09 00:22:00,
2013-07-08 20:24:00,82.0,73.5,29.18,WSW,258,9.0,14.0,75,0.00,,,0.00,WUHU216DAVISVP2,2013-07-09 00:24:00,
2013-07-08 20:26:00,82.0,73.9,29.18,West,280,4.0,14.0,76,0.00,,,0.00,WUHU216DAVISVP2,2013-07-09 00:26:00,
2013-07-08 20:27:00,81.9,73.8,29.18,West,263,6.0,14.0,76,0.00,,,0.00,WUHU216DAVISVP2,2013-07-09 00:27:00,
2013-07-08 20:29:00,81.9,73.8,29.18,WSW,249,5.0,14.0,76,0.00,,,0.00,WUHU216DAVISVP2,2013-07-09 00:29:00,
2013-07-08 20:32:00,81.8,73.7,29.19,WSW,241,11.0,14.0,76,0.00,,,0.00,WUHU216DAVISVP2,2013-07-09 00:32:00,
2013-07-08 20:35:00,81.7,73.6,29.19,West,264,6.0,14.0,76,0.00,,,0.00,WUHU216DAVISVP2,2013-07-09 00:35:00,
2013-07-08 20:38:00,81.7,73.6,29.18,West,280,5.0,14.0,76,0.00,,,0.00,WUHU216DAVISVP2,2013-07-09 00:38:00,
2013-07-08 20:39:00,81.6,73.5,29.18,West,259,5.0,14.0,76,0.00,,,0.00,WUHU216DAVISVP2,2013-07-09 00:39:00,
2013-07-08 20:41:00,81.6,73.5,29.18,WSW,248,5.0,14.0,76,0.00,,,0.00,WUHU216DAVISVP2,2013-07-09 00:41:00,
2013-07-08 20:44:00,81.6,73.5,29.18,WSW,245,4.0,14.0,76,0.00,,,0.00,WUHU216DAVISVP2,2013-07-09 00:44:00,
2013-07-08 20:47:00,81.5,73.4,29.18,West,268,6.0,14.0,76,0.00,,,0.00,WUHU216DAVISVP2,2013-07-09 00:47:00,
2013-07-08 20:49:00,81.5,73.4,29.18,WSW,251,6.0,14.0,76,0.00,,,0.00,WUHU216DAVISVP2,2013-07-09 00:49:00,
2013-07-08 20:53:00,81.4,73.7,29.19,WSW,258,7.0,14.0,77,0.00,,,0.00,WUHU216DAVISVP2,2013-07-09 00:53:00,
2013-07-08 20:54:00,81.4,73.7,29.19,SW,231,9.0,14.0,77,0.00,,,0.00,WUHU216DAVISVP2,2013-07-09 00:54:00,
2013-07-08 20:58:00,81.4,73.7,29.19,WSW,247,6.0,14.0,77,0.00,,,0.00,WUHU216DAVISVP2,2013-07-09 00:58:00,
2013-07-08 20:59:00,81.3,73.6,29.19,WSW,245,5.0,14.0,77,0.00,,,0.00,WUHU216DAVISVP2,2013-07-09 00:59:00,
2013-07-08 21:05:00,81.3,73.6,29.19,WSW,241,1.0,14.0,77,0.00,,,0.00,WUHU216DAVISVP2,2013-07-09 01:05:00,
2013-07-08 21:06:00,81.2,73.5,29.19,WSW,249,8.0,14.0,77,0.00,,,0.00,WUHU216DAVISVP2,2013-07-09 01:06:00,
2013-07-08 21:07:00,81.2,73.5,29.18,West,262,4.0,12.0,77,0.00,,,0.00,WUHU216DAVISVP2,2013-07-09 01:07:00,
2013-07-08 21:11:00,81.2,73.8,29.19,WSW,243,4.0,15.0,78,0.00,,,0.00,WUHU216DAVISVP2,2013-07-09 01:11:00,
2013-07-08 21:13:00,81.1,73.7,29.19,WSW,245,6.0,15.0,78,0.00,,,0.00,WUHU216DAVISVP2,2013-07-09 01:13:00,
2013-07-08 21:16:00,81.0,73.6,29.19,WSW,254,4.0,15.0,78,0.00,,,0.00,WUHU216DAVISVP2,2013-07-09 01:16:00,
2013-07-08 21:19:00,81.0,73.6,29.18,SW,229,6.0,15.0,78,0.00,,,0.00,WUHU216DAVISVP2,2013-07-09 01:19:00,
2013-07-08 21:20:00,81.0,73.6,29.18,WSW,254,7.0,15.0,78,0.00,,,0.00,WUHU216DAVISVP2,2013-07-09 01:20:00,
2013-07-08 21:21:00,80.9,73.5,29.18,WSW,243,8.0,15.0,78,0.00,,,0.00,WUHU216DAVISVP2,2013-07-09 01:21:00,
2013-07-08 21:25:00,80.9,73.5,29.18,West,260,8.0,15.0,78,0.00,,,0.00,WUHU216DAVISVP2,2013-07-09 01:25:00,
2013-07-08 21:26:00,80.8,73.4,29.18,WSW,251,10.0,15.0,78,0.00,,,0.00,WUHU216DAVISVP2,2013-07-09 01:26:00,
2013-07-08 21:31:00,80.7,73.3,29.18,WSW,247,4.0,13.0,78,0.00,,,0.00,WUHU216DAVISVP2,2013-07-09 01:31:00,
2013-07-08 21:36:00,80.6,73.6,29.19,WSW,251,7.0,12.0,79,0.00,,,0.00,WUHU216DAVISVP2,2013-07-09 01:36:00,
2013-07-08 21:37:00,80.6,73.6,29.19,WSW,250,9.0,12.0,79,0.00,,,0.00,WUHU216DAVISVP2,2013-07-09 01:37:00,
2013-07-08 21:41:00,80.6,73.6,29.18,WSW,243,13.0,13.0,79,0.00,,,0.00,WUHU216DAVISVP2,2013-07-09 01:41:00,
2013-07-08 21:45:00,80.5,73.5,29.18,West,268,5.0,13.0,79,0.00,,,0.00,WUHU216DAVISVP2,2013-07-09 01:45:00,
2013-07-08 21:46:00,80.4,73.4,29.18,WSW,252,7.0,13.0,79,0.00,,,0.00,WUHU216DAVISVP2,2013-07-09 01:46:00,
2013-07-08 21:51:00,80.2,73.6,29.18,WSW,251,7.0,13.0,80,0.00,,,0.00,WUHU216DAVISVP2,2013-07-09 01:51:00,
2013-07-08 21:52:00,80.2,73.6,29.18,West,274,5.0,13.0,80,0.00,,,0.00,WUHU216DAVISVP2,2013-07-09 01:52:00,
2013-07-08 21:53:00,80.1,73.8,29.18,WSW,258,2.0,13.0,81,0.00,,,0.00,WUHU216DAVISVP2,2013-07-09 01:53:00,
2013-07-08 21:56:00,79.9,73.6,29.19,West,264,3.0,13.0,81,0.00,,,0.00,WUHU216DAVISVP2,2013-07-09 01:56:00,
2013-07-08 21:58:00,79.8,73.5,29.19,SW,220,3.0,13.0,81,0.00,,,0.00,WUHU216DAVISVP2,2013-07-09 01:58:00,
2013-07-08 21:59:00,79.8,73.5,29.19,WSW,249,8.0,13.0,81,0.00,,,0.00,WUHU216DAVISVP2,2013-07-09 01:59:00,
2013-07-08 22:01:00,79.7,73.5,29.18,WSW,256,5.0,12.0,81,0.00,,,0.00,WUHU216DAVISVP2,2013-07-09 02:01:00,
2013-07-08 22:04:00,79.6,73.7,29.18,WSW,241,8.0,15.0,82,0.00,,,0.00,WUHU216DAVISVP2,2013-07-09 02:04:00,
2013-07-08 22:05:00,79.5,73.6,29.18,West,268,7.0,15.0,82,0.00,,,0.00,WUHU216DAVISVP2,2013-07-09 02:05:00,
2013-07-08 22:06:00,79.5,73.6,29.18,WSW,239,2.0,15.0,82,0.00,,,0.00,WUHU216DAVISVP2,2013-07-09 02:06:00,
2013-07-08 22:10:00,79.4,73.5,29.18,West,270,2.0,15.0,82,0.00,,,0.00,WUHU216DAVISVP2,2013-07-09 02:10:00,
2013-07-08 22:12:00,79.4,73.5,29.18,WSW,251,7.0,15.0,82,0.00,,,0.00,WUHU216DAVISVP2,2013-07-09 02:12:00,
2013-07-08 22:16:00,79.4,73.2,29.18,West,261,2.0,15.0,81,0.00,,,0.00,WUHU216DAVISVP2,2013-07-09 02:16:00,
2013-07-08 22:18:00,79.3,73.1,29.19,SW,232,5.0,15.0,81,0.00,,,0.00,WUHU216DAVISVP2,2013-07-09 02:18:00,
2013-07-08 22:22:00,79.3,73.1,29.19,WSW,254,5.0,15.0,81,0.00,,,0.00,WUHU216DAVISVP2,2013-07-09 02:22:00,
2013-07-08 22:24:00,79.3,73.1,29.19,WSW,255,4.0,11.0,81,0.00,,,0.00,WUHU216DAVISVP2,2013-07-09 02:24:00,
2013-07-08 22:27:00,79.3,73.1,29.19,West,267,6.0,11.0,81,0.00,,,0.00,WUHU216DAVISVP2,2013-07-09 02:27:00,
2013-07-08 22:30:00,79.4,73.2,29.19,WSW,245,7.0,11.0,81,0.00,,,0.00,WUHU216DAVISVP2,2013-07-09 02:30:00,
2013-07-08 22:32:00,79.4,73.2,29.19,WSW,240,1.0,11.0,81,0.00,,,0.00,WUHU216DAVISVP2,2013-07-09 02:32:00,
2013-07-08 22:36:00,79.3,73.1,29.20,West,260,4.0,11.0,81,0.00,,,0.00,WUHU216DAVISVP2,2013-07-09 02:36:00,
2013-07-08 22:38:00,79.3,73.1,29.19,WSW,258,5.0,11.0,81,0.00,,,0.00,WUHU216DAVISVP2,2013-07-09 02:38:00,
2013-07-08 22:41:00,79.3,73.1,29.19,West,267,7.0,11.0,81,0.00,,,0.00,WUHU216DAVISVP2,2013-07-09 02:41:00,
2013-07-08 22:42:00,79.3,73.1,29.19,West,266,6.0,11.0,81,0.00,,,0.00,WUHU216DAVISVP2,2013-07-09 02:42:00,
2013-07-08 22:45:00,79.3,73.1,29.20,WSW,241,8.0,11.0,81,0.00,,,0.00,WUHU216DAVISVP2,2013-07-09 02:45:00,
2013-07-08 22:49:00,79.2,73.0,29.20,WSW,250,4.0,11.0,81,0.00,,,0.00,WUHU216DAVISVP2,2013-07-09 02:49:00,
2013-07-08 22:50:00,79.2,73.0,29.19,WSW,237,2.0,11.0,81,0.00,,,0.00,WUHU216DAVISVP2,2013-07-09 02:50:00,
2013-07-08 22:54:00,79.2,73.0,29.20,WSW,246,4.0,11.0,81,0.00,,,0.00,WUHU216DAVISVP2,2013-07-09 02:54:00,
2013-07-08 22:55:00,79.2,73.0,29.20,WSW,246,5.0,11.0,81,0.00,,,0.00,WUHU216DAVISVP2,2013-07-09 02:55:00,
2013-07-08 22:56:00,79.2,73.0,29.20,WSW,246,6.0,11.0,81,0.00,,,0.00,WUHU216DAVISVP2,2013-07-09 02:56:00,
2013-07-08 23:00:00,79.1,72.9,29.20,WSW,249,5.0,11.0,81,0.00,,,0.00,WUHU216DAVISVP2,2013-07-09 03:00:00,
2013-07-08 23:01:00,79.1,72.9,29.20,WSW,249,5.0,11.0,81,0.00,,,0.00,WUHU216DAVISVP2,2013-07-09 03:01:00,
2013-07-08 23:06:00,79.1,72.9,29.20,WSW,249,6.0,11.0,81,0.00,,,0.00,WUHU216DAVISVP2,2013-07-09 03:06:00,
2013-07-08 23:09:00,79.1,72.9,29.20,West,260,0.0,9.0,81,0.00,,,0.00,WUHU216DAVISVP2,2013-07-09 03:09:00,
2013-07-08 23:11:00,79.0,72.8,29.20,SSW,206,3.0,11.0,81,0.00,,,0.00,WUHU216DAVISVP2,2013-07-09 03:11:00,
2013-07-08 23:14:00,79.0,72.8,29.20,WSW,243,5.0,11.0,81,0.00,,,0.00,WUHU216DAVISVP2,2013-07-09 03:14:00,
2013-07-08 23:16:00,79.0,72.8,29.20,WSW,256,5.0,11.0,81,0.00,,,0.00,WUHU216DAVISVP2,2013-07-09 03:16:00,
2013-07-08 23:19:00,78.9,72.7,29.20,WSW,246,5.0,11.0,81,0.00,,,0.00,WUHU216DAVISVP2,2013-07-09 03:19:00,
2013-07-08 23:22:00,78.9,73.0,29.20,WSW,243,2.0,11.0,82,0.00,,,0.00,WUHU216DAVISVP2,2013-07-09 03:22:00,
2013-07-08 23:25:00,78.9,73.0,29.20,WSW,254,8.0,11.0,82,0.00,,,0.00,WUHU216DAVISVP2,2013-07-09 03:25:00,
2013-07-08 23:27:00,78.9,73.0,29.19,West,260,4.0,11.0,82,0.00,,,0.00,WUHU216DAVISVP2,2013-07-09 03:27:00,
2013-07-08 23:31:00,79.0,73.1,29.19,SW,216,6.0,14.0,82,0.00,,,0.00,WUHU216DAVISVP2,2013-07-09 03:31:00,
2013-07-08 23:34:00,79.0,73.1,29.19,WSW,249,9.0,14.0,82,0.00,,,0.00,WUHU216DAVISVP2,2013-07-09 03:34:00,
2013-07-08 23:36:00,79.0,72.8,29.19,SW,224,9.0,14.0,81,0.00,,,0.00,WUHU216DAVISVP2,2013-07-09 03:36:00,
2013-07-08 23:39:00,78.9,73.0,29.19,WSW,251,8.0,14.0,82,0.00,,,0.00,WUHU216DAVISVP2,2013-07-09 03:39:00,
2013-07-08 23:41:00,78.9,73.0,29.19,WSW,239,12.0,20.0,82,0.00,,,0.00,WUHU216DAVISVP2,2013-07-09 03:41:00,
2013-07-08 23:44:00,78.9,73.0,29.19,WSW,253,8.0,20.0,82,0.00,,,0.00,WUHU216DAVISVP2,2013-07-09 03:44:00,
2013-07-08 23:45:00,78.9,73.0,29.19,WSW,253,8.0,20.0,82,0.00,,,0.00,WUHU216DAVISVP2,2013-07-09 03:45:00,
2013-07-08 23:47:00,78.9,73.0,29.19,WSW,258,9.0,20.0,82,0.00,,,0.00,WUHU216DAVISVP2,2013-07-09 03:47:00,
2013-07-08 23:50:00,78.8,72.9,29.19,WSW,258,4.0,20.0,82,0.00,,,0.00,WUHU216DAVISVP2,2013-07-09 03:50:00,
2013-07-08 23:53:00,78.7,72.8,29.19,WSW,247,10.0,20.0,82,0.00,,,0.00,WUHU216DAVISVP2,2013-07-09 03:53:00,
2013-07-08 23:57:00,78.6,72.7,29.19,WSW,247,8.0,20.0,82,0.00,,,0.00,WUHU216DAVISVP2,2013-07-09 03:57:00,
2013-07-08 23:58:00,78.5,72.6,29.19,WSW,252,6.0,20.0,82,0.00,,,0.00,WUHU216DAVISVP2,2013-07-09 03:58:00,